KJ6MC Weather Reports


Display with metric or nautical units.
time (UTC)temp
F
wind
direction
speed
MPH
gust
MPH
rain 1hr
in
rain 24hr
in
rain mn
in
humidity
%
barometer
mb
20260904145634 61 229 1.0 6.0 0.00 0.03 0.03 88 1013.0
20260904145533 61 231 1.0 5.0 0.00 0.03 0.03 89 1013.0
20260904145412 61 143 1.0 3.0 0.00 0.03 0.03 90 1013.0
20260904145333 61 144 1.0 3.0 0.00 0.03 0.03 90 1013.0
20260904145234 60 104 1.0 3.0 0.00 0.03 0.03 90 1013.0
20260904145129 60 135 1.0 3.0 0.00 0.03 0.03 90 1013.0
20260904145027 60 138 0.0 3.0 0.00 0.03 0.03 90 1013.0
20260904144927 60 138 1.0 3.0 0.00 0.03 0.03 90 1013.0
20260904144909 60 138 0.0 3.0 0.00 0.03 0.03 90 1013.0
20260904144827 60 135 0.0 3.0 0.00 0.03 0.03 91 1013.0
20260904144728 60 139 0.0 3.0 0.00 0.03 0.03 91 1013.0
20260904144624 60 139 1.0 3.0 0.00 0.03 0.03 90 1013.0
20260904144522 60 138 1.0 3.0 0.00 0.03 0.03 90 1013.0
20260904144422 60 133 1.0 3.0 0.00 0.03 0.03 90 1013.0
20260904144401 60 186 1.0 3.0 0.00 0.03 0.03 90 1013.0
20260904144321 59 211 1.0 4.0 0.00 0.03 0.03 91 1013.0
20260904144222 59 186 1.0 4.0 0.00 0.03 0.03 91 1012.9
20260904144125 59 235 1.0 4.0 0.00 0.03 0.03 91 1012.9
20260904144118 59 186 1.0 4.0 0.00 0.03 0.03 90 1012.9
20260904144015 59 188 1.0 4.0 0.00 0.03 0.03 91 1012.9
20260904144005 59 196 1.0 4.0 0.00 0.03 0.03 91 1012.9
20260904143816 59 235 1.0 4.0 0.00 0.03 0.03 90 1012.9
20260904143715 59 225 1.0 4.0 0.00 0.03 0.03 90 1012.9
20260904143624 59 236 0.0 4.0 0.00 0.03 0.03 90 1012.8
20260904143612 59 203 0.0 4.0 0.00 0.03 0.03 90 1012.9
20260904143510 59 236 0.0 4.0 0.00 0.03 0.03 91 1012.8
20260904143410 59 236 0.0 4.0 0.00 0.03 0.03 90 1012.8
20260904143310 59 245 0.0 2.0 0.00 0.03 0.03 90 1012.8
20260904143210 59 190 0.0 2.0 0.00 0.03 0.03 90 1012.8
20260904143110 59 186 0.0 2.0 0.00 0.03 0.03 90 1012.8
20260904143008 59 186 0.0 2.0 0.00 0.03 0.03 90 1012.8
20260904142907 59 186 0.0 2.0 0.00 0.03 0.03 90 1012.7
20260904142856 59 186 0.0 2.0 0.00 0.03 0.03 90 1012.7
20260904142805 59 186 0.0 2.0 0.00 0.03 0.03 90 1012.7
20260904142705 59 186 1.0 2.0 0.00 0.03 0.03 90 1012.7
20260904142558 59 186 1.0 2.0 0.00 0.03 0.03 90 1012.7
20260904142458 59 186 1.0 2.0 0.00 0.03 0.03 90 1012.6
20260904142357 59 186 1.0 2.0 0.00 0.03 0.03 90 1012.6
20260904142337 59 211 1.0 2.0 0.00 0.03 0.03 90 1012.6
20260904142257 59 211 1.0 2.0 0.00 0.03 0.03 90 1012.6
20260904142159 59 136 1.0 6.0 0.00 0.03 0.03 90 1012.5
20260904142055 59 136 1.0 7.0 0.00 0.03 0.03 90 1012.5
20260904141955 59 134 1.0 7.0 0.00 0.03 0.03 90 1012.5
20260904141831 59 134 2.0 7.0 0.00 0.03 0.03 90 1012.5
20260904141753 59 134 2.0 7.0 0.00 0.03 0.03 90 1012.4
20260904141652 59 129 2.0 7.0 0.00 0.03 0.03 90 1012.4
20260904141547 59 143 2.0 7.0 0.00 0.03 0.03 90 1012.4
20260904141448 59 258 2.0 7.0 0.00 0.03 0.03 90 1012.4
20260904141348 59 193 2.0 7.0 0.00 0.03 0.03 90 1012.4
20260904141326 59 155 2.0 7.0 0.00 0.03 0.03 90 1012.4
20260904141311 59 231 2.0 5.0 0.00 0.03 0.03 90 1012.3
20260904141248 59 120 2.0 7.0 0.00 0.03 0.03 90 1012.4
20260904141158 59 222 2.0 5.0 0.00 0.03 0.03 90 1012.4
20260904141040 59 131 2.0 5.0 0.00 0.03 0.03 90 1012.4
20260904140940 59 222 2.0 5.0 0.00 0.03 0.03 90 1012.4
20260904140931 59 193 2.0 5.0 0.00 0.03 0.03 90 1012.3
20260904140804 59 216 1.0 4.0 0.00 0.03 0.03 90 1012.3
20260904140740 59 207 2.0 5.0 0.00 0.03 0.03 90 1012.3
20260904140650 59 192 2.0 5.0 0.00 0.03 0.03 90 1012.3
20260904140536 59 231 2.0 5.0 0.00 0.03 0.03 90 1012.3
20260904140435 59 210 1.0 4.0 0.00 0.03 0.03 90 1012.2
20260904140423 59 215 1.0 4.0 0.00 0.03 0.03 90 1012.2
20260904140237 59 193 1.0 4.0 0.00 0.03 0.03 90 1012.3
20260904140133 59 200 1.0 3.0 0.00 0.03 0.03 90 1012.2
20260904140032 59 211 0.0 3.0 0.00 0.03 0.03 90 1012.3
20260904135932 59 179 0.0 2.0 0.00 0.03 0.03 90 1012.2
20260904135807 59 190 0.0 2.0 0.00 0.03 0.03 90 1012.3
20260904135730 59 190 0.0 3.0 0.00 0.03 0.03 90 1012.3
20260904135627 59 190 1.0 3.0 0.00 0.03 0.03 90 1012.3
20260904135522 59 190 0.0 3.0 0.00 0.03 0.03 90 1012.3
20260904135422 59 190 0.0 3.0 0.00 0.03 0.03 90 1012.3
20260904135321 59 190 1.0 3.0 0.00 0.03 0.03 89 1012.2
20260904135300 59 190 1.0 3.0 0.00 0.03 0.03 89 1012.2
20260904135223 59 190 1.0 3.0 0.00 0.03 0.03 89 1012.2
20260904135121 59 190 1.0 3.0 0.00 0.03 0.03 89 1012.2
20260904135022 59 190 1.0 3.0 0.00 0.03 0.03 89 1012.2
20260904134919 59 190 1.0 3.0 0.00 0.03 0.03 89 1012.2
20260904134820 59 190 1.0 3.0 0.00 0.03 0.03 89 1012.2
20260904134754 60 190 0.0 3.0 0.00 0.03 0.03 89 1012.2
20260904134718 60 191 0.0 3.0 0.00 0.03 0.03 89 1012.2
20260904134615 60 225 1.0 3.0 0.00 0.03 0.03 89 1012.1
20260904134509 60 225 1.0 3.0 0.00 0.03 0.03 89 1012.2
20260904134411 60 225 1.0 3.0 0.00 0.03 0.03 89 1012.2
20260904134310 60 226 1.0 3.0 0.00 0.03 0.03 89 1012.1
20260904134249 60 226 1.0 3.0 0.00 0.03 0.03 89 1012.1
20260904134210 60 226 1.0 3.0 0.00 0.03 0.03 89 1012.2
20260904134110 60 211 1.0 3.0 0.00 0.03 0.03 89 1012.1
20260904134005 60 136 1.0 3.0 0.00 0.03 0.03 89 1012.1
20260904133903 60 136 1.0 3.0 0.00 0.03 0.03 89 1012.1
20260904133803 60 136 2.0 5.0 0.00 0.03 0.03 89 1012.1
20260904133747 60 135 2.0 5.0 0.00 0.03 0.03 89 1012.1
20260904133703 60 136 1.0 5.0 0.00 0.03 0.03 89 1012.1
20260904133559 60 197 1.0 5.0 0.00 0.03 0.03 89 1012.0
20260904133456 60 229 1.0 5.0 0.00 0.03 0.03 89 1012.0
20260904133355 60 238 1.0 5.0 0.00 0.03 0.03 89 1012.0
20260904133232 60 147 1.0 5.0 0.00 0.03 0.03 88 1012.0
20260904133223 60 241 2.0 7.0 0.00 0.03 0.03 88 1011.9
20260904133156 60 146 1.0 5.0 0.00 0.03 0.03 88 1011.9
20260904133107 60 201 1.0 5.0 0.00 0.03 0.03 88 1012.0
20260904132951 60 239 2.0 5.0 0.00 0.03 0.03 88 1012.0
20260904132851 60 239 2.0 7.0 0.00 0.03 0.03 88 1012.0
20260904132836 60 207 2.0 7.0 0.00 0.03 0.03 88 1011.9
20260904132651 60 242 2.0 7.0 0.00 0.03 0.03 88 1012.0
20260904132547 60 242 2.0 7.0 0.00 0.03 0.03 88 1011.9
20260904132446 60 242 2.0 7.0 0.00 0.03 0.03 88 1011.9
20260904132345 60 212 2.0 7.0 0.00 0.03 0.03 88 1011.9
20260904132220 60 212 2.0 7.0 0.00 0.03 0.03 88 1011.8
20260904132145 60 231 2.0 7.0 0.00 0.03 0.03 88 1011.9
20260904132041 60 259 2.0 7.0 0.00 0.03 0.03 88 1011.8
20260904131940 60 229 2.0 7.0 0.00 0.03 0.03 88 1011.8
20260904131840 60 144 2.0 5.0 0.00 0.03 0.03 88 1011.8
20260904131739 61 222 2.0 5.0 0.00 0.03 0.03 88 1011.8
20260904131727 61 212 2.0 5.0 0.00 0.03 0.03 88 1011.8
20260904131638 61 236 2.0 5.0 0.00 0.03 0.03 88 1011.8
20260904131540 61 239 2.0 5.0 0.00 0.03 0.03 88 1011.8
20260904131429 61 221 2.0 5.0 0.00 0.03 0.03 88 1011.8
20260904131329 61 242 2.0 5.0 0.00 0.03 0.03 88 1011.8
20260904131231 61 238 2.0 5.0 0.00 0.03 0.03 88 1011.8
20260904131209 61 229 2.0 5.0 0.00 0.03 0.03 88 1011.8
20260904131130 61 231 2.0 5.0 0.00 0.03 0.03 88 1011.8
20260904131030 61 233 2.0 5.0 0.00 0.03 0.03 88 1011.8
20260904130926 61 203 2.0 4.0 0.00 0.03 0.03 89 1011.8
20260904130826 61 193 2.0 4.0 0.00 0.03 0.03 89 1011.7
20260904130726 61 155 1.0 4.0 0.00 0.03 0.03 89 1011.7
20260904130703 61 200 1.0 4.0 0.00 0.03 0.03 89 1011.7
20260904130625 61 212 1.0 4.0 0.00 0.03 0.03 89 1011.7
20260904130524 61 198 1.0 4.0 0.00 0.03 0.03 88 1011.7
20260904130417 61 226 1.0 4.0 0.00 0.03 0.03 88 1011.7
20260904130318 61 226 1.0 4.0 0.00 0.03 0.03 88 1011.7
20260904130220 61 228 1.0 4.0 0.00 0.03 0.03 88 1011.7
20260904130209 61 228 2.0 4.0 0.00 0.03 0.03 88 1011.7
20260904130117 61 229 2.0 4.0 0.00 0.03 0.03 88 1011.7
20260904130019 61 208 2.0 4.0 0.00 0.03 0.03 88 1011.7
20260904125911 61 210 2.0 6.0 0.00 0.03 0.03 88 1011.7
20260904125812 61 129 2.0 6.0 0.00 0.03 0.03 88 1011.7
20260904125712 61 138 3.0 6.0 0.00 0.03 0.03 88 1011.7
20260904125651 61 138 3.0 6.0 0.00 0.03 0.03 88 1011.7
20260904125613 61 137 3.0 9.0 0.00 0.03 0.03 88 1011.7
20260904125511 61 221 3.0 9.0 0.00 0.03 0.03 88 1011.7
20260904125412 61 228 3.0 9.0 0.00 0.03 0.03 88 1011.7
20260904125310 61 228 3.0 9.0 0.00 0.03 0.03 88 1011.8
20260904125214 61 232 3.0 9.0 0.00 0.03 0.03 88 1011.8
20260904125145 61 238 3.0 9.0 0.00 0.03 0.03 88 1011.8
20260904125108 61 162 3.0 9.0 0.00 0.03 0.03 88 1011.7
20260904125006 61 194 2.0 9.0 0.00 0.03 0.03 88 1011.7
20260904124859 61 231 2.0 9.0 0.00 0.03 0.03 88 1011.7
20260904124800 61 231 2.0 9.0 0.00 0.03 0.03 88 1011.7
20260904124700 61 248 2.0 9.0 0.00 0.03 0.03 88 1011.7
20260904124638 61 258 2.0 9.0 0.00 0.03 0.03 88 1011.7
20260904124600 61 231 2.0 5.0 0.00 0.03 0.03 88 1011.7
20260904124459 61 198 1.0 5.0 0.00 0.03 0.03 89 1011.7
20260904124355 61 228 1.0 4.0 0.00 0.03 0.03 89 1011.6
20260904124256 61 269 2.0 4.0 0.00 0.03 0.03 89 1011.6
20260904124156 61 212 2.0 7.0 0.00 0.03 0.03 89 1011.6
20260904124133 61 225 2.0 7.0 0.00 0.03 0.03 89 1011.6
20260904124056 61 222 2.0 7.0 0.00 0.03 0.03 89 1011.7
20260904123954 61 217 2.0 7.0 0.00 0.03 0.03 89 1011.6
20260904123852 61 219 2.0 7.0 0.00 0.03 0.03 89 1011.6
20260904123752 61 160 2.0 7.0 0.00 0.03 0.03 89 1011.6
20260904123627 61 190 2.0 7.0 0.00 0.03 0.03 89 1011.6
20260904123550 61 195 2.0 7.0 0.00 0.03 0.03 89 1011.6
20260904123447 61 218 2.0 7.0 0.00 0.03 0.03 89 1011.6
20260904123348 61 205 2.0 7.0 0.00 0.03 0.03 89 1011.6
20260904123246 61 214 2.0 7.0 0.00 0.03 0.03 89 1011.6
20260904123146 61 205 2.0 6.0 0.00 0.03 0.03 89 1011.6
20260904123120 61 225 2.0 6.0 0.00 0.03 0.03 89 1011.6
20260904123043 61 233 2.0 6.0 0.00 0.03 0.03 89 1011.6
20260904122941 61 136 2.0 6.0 0.00 0.03 0.03 89 1011.6
20260904122837 61 214 2.0 6.0 0.00 0.03 0.03 89 1011.5
20260904122735 61 193 2.0 6.0 0.00 0.03 0.03 89 1011.5
20260904122639 61 235 2.0 6.0 0.00 0.03 0.03 89 1011.5
20260904122613 61 236 2.0 6.0 0.00 0.03 0.03 89 1011.6
20260904122536 61 235 2.0 6.0 0.00 0.03 0.03 89 1011.6
20260904122435 61 235 2.0 6.0 0.00 0.03 0.03 89 1011.5
20260904122329 61 135 2.0 6.0 0.00 0.03 0.03 89 1011.5
20260904122229 61 242 2.0 6.0 0.00 0.03 0.03 89 1011.5
20260904122129 61 226 2.0 6.0 0.00 0.03 0.03 89 1011.5
20260904122108 61 259 2.0 6.0 0.00 0.03 0.03 89 1011.5
20260904122029 61 198 2.0 6.0 0.00 0.03 0.03 89 1011.5
20260904121929 61 205 2.0 6.0 0.00 0.03 0.03 89 1011.5
20260904121833 61 243 2.0 7.0 0.00 0.03 0.03 89 1011.5
20260904121728 61 226 2.0 7.0 0.00 0.03 0.03 89 1011.5
20260904121627 61 217 2.0 7.0 0.00 0.03 0.03 89 1011.5
20260904121602 61 166 3.0 7.0 0.00 0.03 0.03 89 1011.5
20260904121525 61 166 3.0 7.0 0.00 0.03 0.03 89 1011.5
20260904121423 61 211 2.0 7.0 0.00 0.03 0.03 89 1011.5
20260904121327 61 252 2.0 7.0 0.00 0.03 0.03 89 1011.5
20260904121320 61 212 2.0 7.0 0.00 0.03 0.03 89 1011.5
20260904121220 61 224 2.0 7.0 0.00 0.03 0.03 89 1011.5
20260904121212 61 145 2.0 7.0 0.00 0.03 0.03 89 1011.5
20260904121018 61 229 2.0 7.0 0.00 0.03 0.03 90 1011.5
20260904120917 61 214 2.0 5.0 0.00 0.03 0.03 90 1011.5
20260904120814 61 214 2.0 5.0 0.00 0.03 0.03 90 1011.5
20260904120712 61 161 2.0 5.0 0.00 0.03 0.03 89 1011.5
20260904120612 61 169 2.0 4.0 0.00 0.03 0.03 90 1011.5
20260904120550 61 210 2.0 4.0 0.00 0.03 0.03 90 1011.5
20260904120512 61 193 2.0 7.0 0.00 0.03 0.03 89 1011.4
20260904120411 61 219 2.0 7.0 0.00 0.03 0.03 89 1011.4
20260904120311 61 219 2.0 7.0 0.00 0.03 0.03 89 1011.5
20260904120211 61 255 2.0 7.0 0.00 0.03 0.03 90 1011.4
20260904120108 61 238 2.0 7.0 0.00 0.03 0.03 90 1011.4
20260904120057 61 211 2.0 7.0 0.00 0.03 0.03 90 1011.4
20260904120008 61 212 3.0 7.0 0.00 0.03 0.03 90 1011.4
20260904115905 61 148 3.0 7.0 0.00 0.03 0.03 89 1011.4
20260904115801 61 242 3.0 7.0 0.00 0.03 0.03 89 1011.4
20260904115700 61 211 3.0 7.0 0.00 0.03 0.03 89 1011.4
20260904115559 61 260 3.0 7.0 0.00 0.03 0.03 89 1011.4
20260904115539 61 242 3.0 7.0 0.00 0.03 0.03 89 1011.4
20260904115500 61 241 3.0 6.0 0.00 0.03 0.03 90 1011.4
20260904115359 61 199 3.0 6.0 0.00 0.03 0.03 90 1011.4
20260904115254 61 236 3.0 5.0 0.00 0.03 0.03 90 1011.4
20260904115154 61 233 3.0 5.0 0.00 0.03 0.03 90 1011.4
20260904115054 61 231 3.0 6.0 0.00 0.03 0.03 90 1011.4
20260904115032 61 243 3.0 6.0 0.00 0.03 0.03 90 1011.4
20260904114953 61 233 2.0 6.0 0.00 0.03 0.03 90 1011.4
20260904114854 61 192 2.0 6.0 0.00 0.03 0.03 90 1011.4
20260904114750 61 169 2.0 6.0 0.00 0.03 0.03 90 1011.4
20260904114649 61 217 2.0 6.0 0.00 0.03 0.03 91 1011.5
20260904114548 61 179 2.0 6.0 0.00 0.03 0.03 90 1011.5
20260904114527 61 150 2.0 6.0 0.00 0.03 0.03 90 1011.5
20260904114448 61 134 2.0 6.0 0.00 0.03 0.03 90 1011.5
20260904114347 61 226 2.0 6.0 0.00 0.03 0.03 90 1011.4
20260904114246 61 219 1.0 4.0 0.00 0.03 0.03 91 1011.5
20260904114241 61 233 2.0 6.0 0.00 0.03 0.03 90 1011.5
20260904114142 61 250 1.0 6.0 0.00 0.03 0.03 91 1011.5
20260904114131 61 207 1.0 5.0 0.00 0.03 0.03 91 1011.5
20260904113941 61 222 1.0 4.0 0.00 0.03 0.03 91 1011.5
20260904113841 61 218 1.0 4.0 0.00 0.03 0.03 91 1011.4
20260904113741 61 238 1.0 3.0 0.00 0.03 0.03 91 1011.4
20260904113737 61 236 1.0 4.0 0.00 0.03 0.03 91 1011.4
20260904113637 61 237 1.0 4.0 0.00 0.03 0.03 90 1011.4
20260904113625 61 240 1.0 3.0 0.00 0.03 0.03 91 1011.4
20260904113436 61 233 0.0 3.0 0.00 0.03 0.03 91 1011.4
20260904113336 61 232 0.0 2.0 0.00 0.03 0.03 91 1011.4
20260904113232 61 232 0.0 2.0 0.00 0.03 0.03 91 1011.4
20260904113130 61 232 1.0 4.0 0.00 0.03 0.03 91 1011.4
20260904113008 61 215 1.0 4.0 0.00 0.03 0.03 91 1011.4
20260904112929 61 216 1.0 4.0 0.00 0.03 0.03 91 1011.4
20260904112834 61 210 1.0 4.0 0.00 0.03 0.03 91 1011.4
20260904112736 61 172 2.0 6.0 0.00 0.03 0.03 91 1011.3
20260904112730 61 210 1.0 5.0 0.00 0.03 0.03 91 1011.3
20260904112627 61 210 1.0 5.0 0.00 0.03 0.03 91 1011.3
20260904112528 61 172 2.0 6.0 0.00 0.03 0.03 91 1011.3
20260904112426 61 172 2.0 6.0 0.00 0.03 0.03 91 1011.3
20260904112324 61 172 2.0 6.0 0.00 0.03 0.03 91 1011.3
20260904112219 61 190 2.0 6.0 0.00 0.03 0.03 91 1011.4
20260904112118 61 211 2.0 6.0 0.00 0.03 0.03 91 1011.3
20260904112018 61 228 2.0 6.0 0.00 0.03 0.03 91 1011.3
20260904111956 61 248 2.0 6.0 0.00 0.03 0.03 91 1011.4
20260904111918 61 185 2.0 6.0 0.00 0.03 0.03 91 1011.3
20260904111818 61 188 2.0 6.0 0.00 0.03 0.03 91 1011.3
20260904111715 61 239 2.0 6.0 0.00 0.03 0.03 91 1011.3
20260904111611 61 239 2.0 6.0 0.00 0.03 0.03 91 1011.3
20260904111511 61 229 2.0 5.0 0.00 0.03 0.03 91 1011.3
20260904111455 61 229 2.0 5.0 0.00 0.03 0.03 91 1011.3
20260904111411 61 229 2.0 5.0 0.00 0.03 0.03 91 1011.3
20260904111311 61 217 2.0 5.0 0.00 0.03 0.03 91 1011.3
20260904111207 61 230 2.0 5.0 0.00 0.03 0.03 91 1011.3
20260904111105 61 232 2.0 5.0 0.00 0.03 0.03 91 1011.3
20260904111006 61 205 2.0 4.0 0.00 0.03 0.03 91 1011.3
20260904110955 61 226 2.0 4.0 0.00 0.03 0.03 91 1011.3
20260904110906 61 199 2.0 4.0 0.00 0.03 0.03 91 1011.3
20260904110805 61 222 2.0 6.0 0.00 0.03 0.03 91 1011.3
20260904110704 61 228 2.0 6.0 0.00 0.03 0.03 91 1011.2
20260904110600 61 256 2.0 6.0 0.00 0.03 0.03 91 1011.3
20260904110502 61 148 2.0 6.0 0.00 0.03 0.03 91 1011.2
20260904110452 61 167 2.0 6.0 0.00 0.03 0.03 91 1011.2
20260904110400 61 181 2.0 6.0 0.00 0.03 0.03 91 1011.2
20260904110259 61 222 3.0 6.0 0.00 0.03 0.03 91 1011.2
20260904110156 61 236 3.0 6.0 0.00 0.03 0.03 91 1011.2
20260904110054 61 233 3.0 6.0 0.00 0.03 0.03 91 1011.1
20260904105959 61 188 3.0 6.0 0.00 0.03 0.03 91 1011.2
20260904105953 61 187 3.0 6.0 0.00 0.03 0.03 91 1011.2
20260904105853 61 243 2.0 6.0 0.00 0.03 0.03 92 1011.2
20260904105753 61 233 2.0 4.0 0.00 0.03 0.03 92 1011.2
20260904105655 61 212 2.0 4.0 0.00 0.03 0.03 92 1011.2
20260904105551 61 226 2.0 4.0 0.00 0.03 0.03 92 1011.1
20260904105455 61 197 2.0 4.0 0.00 0.03 0.03 92 1011.1
20260904105449 61 203 2.0 4.0 0.00 0.03 0.03 92 1011.1
20260904105350 61 240 2.0 4.0 0.00 0.03 0.03 92 1011.2
20260904105248 61 217 2.0 5.0 0.00 0.03 0.03 92 1011.1
20260904105145 61 163 2.0 5.0 0.00 0.03 0.03 92 1011.1
20260904105042 61 146 1.0 5.0 0.00 0.03 0.03 92 1011.1
20260904104950 61 214 2.0 5.0 0.00 0.03 0.03 92 1011.1
20260904104941 61 194 2.0 5.0 0.00 0.03 0.03 92 1011.1
20260904104842 61 218 2.0 5.0 0.00 0.03 0.03 92 1011.1
20260904104741 61 236 2.0 5.0 0.00 0.03 0.03 92 1011.1
20260904104637 61 221 2.0 5.0 0.00 0.03 0.03 92 1011.1
20260904104536 61 166 2.0 5.0 0.00 0.03 0.03 92 1011.2
20260904104453 61 235 2.0 5.0 0.00 0.03 0.03 92 1011.1
20260904104435 61 233 2.0 5.0 0.00 0.03 0.03 92 1011.1
20260904104336 61 226 2.0 6.0 0.00 0.03 0.03 92 1011.1
20260904104235 61 236 2.0 6.0 0.00 0.03 0.03 92 1011.1
20260904104216 61 219 2.0 6.0 0.00 0.03 0.03 92 1011.1
20260904104137 61 232 3.0 6.0 0.00 0.03 0.03 92 1011.1
20260904104101 61 222 3.0 6.0 0.00 0.03 0.03 92 1011.1
20260904103934 61 215 2.0 6.0 0.00 0.03 0.03 92 1011.1
20260904103832 61 197 2.0 6.0 0.00 0.03 0.03 92 1011.1
20260904103730 61 233 2.0 6.0 0.00 0.03 0.03 92 1011.1
20260904103624 61 188 2.0 6.0 0.00 0.03 0.03 92 1011.1
20260904103523 61 238 3.0 8.0 0.00 0.03 0.03 92 1011.0
20260904103449 61 233 2.0 8.0 0.00 0.03 0.03 92 1011.1
20260904103424 61 232 2.0 8.0 0.00 0.03 0.03 92 1011.1
20260904103324 61 222 2.0 8.0 0.00 0.03 0.03 92 1011.1
20260904103223 61 214 2.0 8.0 0.00 0.03 0.03 92 1011.1
20260904103118 61 233 2.0 8.0 0.00 0.03 0.03 92 1011.0
20260904103017 61 238 2.0 8.0 0.00 0.03 0.03 92 1011.1
20260904102948 61 222 2.0 8.0 0.00 0.03 0.03 92 1011.1
20260904102917 61 239 2.0 8.0 0.00 0.03 0.03 92 1011.1
20260904102818 61 232 2.0 8.0 0.00 0.03 0.03 92 1011.1
20260904102720 61 238 2.0 8.0 0.00 0.03 0.03 92 1011.1
20260904102711 60 199 2.0 5.0 0.00 0.03 0.03 92 1011.0
20260904102614 61 187 2.0 8.0 0.00 0.03 0.03 92 1011.1
20260904102559 60 223 2.0 5.0 0.00 0.03 0.03 92 1011.0
20260904102412 60 214 2.0 5.0 0.00 0.03 0.03 91 1011.0
20260904102312 60 240 2.0 5.0 0.00 0.03 0.03 91 1011.0
20260904102211 60 225 2.0 5.0 0.00 0.03 0.03 91 1011.1
20260904102106 60 198 2.0 7.0 0.00 0.03 0.03 91 1011.1
20260904102006 60 233 2.0 7.0 0.00 0.03 0.03 91 1011.0
20260904101949 60 215 2.0 7.0 0.00 0.03 0.03 91 1011.0
20260904101906 60 218 2.0 7.0 0.00 0.03 0.03 91 1011.0
20260904101805 60 239 2.0 7.0 0.00 0.03 0.03 91 1011.0
20260904101706 60 234 2.0 7.0 0.00 0.03 0.03 91 1011.0
20260904101604 60 211 2.0 7.0 0.00 0.03 0.03 91 1011.0
20260904101505 60 211 2.0 7.0 0.00 0.03 0.03 91 1010.9
20260904101448 60 212 2.0 7.0 0.00 0.03 0.03 91 1010.9
20260904101403 60 172 2.0 7.0 0.00 0.03 0.03 91 1011.0
20260904101301 60 228 1.0 7.0 0.00 0.03 0.03 91 1010.9
20260904101200 60 204 1.0 7.0 0.00 0.03 0.03 91 1011.0
20260904101057 60 236 1.0 3.0 0.00 0.03 0.03 91 1010.9
20260904100949 60 221 1.0 3.0 0.00 0.03 0.03 91 1010.9
20260904100857 60 221 1.0 3.0 0.00 0.03 0.03 91 1010.9
20260904100755 60 221 1.0 4.0 0.00 0.03 0.03 91 1010.9
20260904100653 60 221 1.0 4.0 0.00 0.03 0.03 91 1010.9
20260904100550 60 203 2.0 5.0 0.00 0.03 0.03 91 1011.0
20260904100448 60 239 2.0 5.0 0.00 0.03 0.03 91 1011.0
20260904100348 60 161 2.0 5.0 0.00 0.03 0.03 91 1011.0
20260904100248 60 161 2.0 5.0 0.00 0.03 0.03 91 1011.0
20260904100207 60 205 2.0 5.0 0.00 0.03 0.03 91 1011.0
20260904100147 60 211 2.0 5.0 0.00 0.03 0.03 91 1011.0
20260904100059 60 211 2.0 5.0 0.00 0.03 0.03 91 1011.0
20260904095942 60 201 2.0 5.0 0.00 0.03 0.03 91 1011.0
20260904095842 60 233 2.0 5.0 0.00 0.03 0.03 91 1011.0
20260904095742 60 218 2.0 5.0 0.00 0.03 0.03 91 1010.9
20260904095642 60 222 2.0 5.0 0.00 0.03 0.03 91 1011.0
20260904095535 60 210 1.0 5.0 0.00 0.03 0.03 91 1010.9
20260904095448 60 155 1.0 4.0 0.00 0.03 0.03 91 1010.9
20260904095435 60 156 1.0 4.0 0.00 0.03 0.03 91 1010.9
20260904095336 60 211 1.0 4.0 0.00 0.03 0.03 91 1010.9
20260904095234 60 213 1.0 4.0 0.00 0.03 0.03 91 1010.9
20260904095134 60 214 1.0 4.0 0.00 0.03 0.03 91 1010.9
20260904095030 60 219 1.0 4.0 0.00 0.03 0.03 91 1010.9
20260904094929 60 219 1.0 4.0 0.00 0.03 0.03 91 1010.9
20260904094830 60 219 1.0 4.0 0.00 0.03 0.03 91 1010.9
20260904094730 60 233 1.0 4.0 0.00 0.03 0.03 91 1010.9
20260904094629 60 233 2.0 4.0 0.00 0.03 0.03 91 1010.9
20260904094526 60 233 2.0 4.0 0.00 0.03 0.03 91 1010.9
20260904094426 60 229 2.0 4.0 0.00 0.03 0.03 91 1010.9
20260904094326 60 229 2.0 4.0 0.00 0.03 0.03 91 1010.9
20260904094224 60 212 2.0 4.0 0.00 0.03 0.03 91 1010.9
20260904094121 60 225 2.0 4.0 0.00 0.03 0.03 91 1011.0
20260904094018 60 232 2.0 4.0 0.00 0.03 0.03 91 1010.9
20260904093937 60 226 2.0 4.0 0.00 0.03 0.03 91 1010.9
20260904093917 60 225 2.0 4.0 0.00 0.03 0.03 91 1010.9
20260904093818 60 219 1.0 4.0 0.00 0.03 0.03 91 1010.9
20260904093718 60 227 1.0 4.0 0.00 0.03 0.03 91 1010.9
20260904093615 60 226 1.0 4.0 0.00 0.03 0.03 91 1011.0
20260904093509 60 214 1.0 3.0 0.00 0.03 0.03 91 1011.0
20260904093429 60 228 1.0 3.0 0.00 0.03 0.03 91 1011.0
20260904093410 60 203 1.0 3.0 0.00 0.03 0.03 91 1011.0
20260904093309 60 168 1.0 3.0 0.00 0.03 0.03 91 1010.9
20260904093210 60 224 1.0 3.0 0.00 0.03 0.03 91 1010.9
20260904093109 60 215 1.0 3.0 0.00 0.03 0.03 91 1010.9
20260904093005 60 218 1.0 3.0 0.00 0.03 0.03 91 1011.0
20260904092926 60 218 1.0 3.0 0.00 0.03 0.03 91 1011.0
20260904092904 60 218 1.0 3.0 0.00 0.03 0.03 91 1010.9
20260904092803 60 181 1.0 3.0 0.00 0.03 0.03 91 1010.9
20260904092704 60 226 1.0 3.0 0.00 0.03 0.03 91 1010.9
20260904092603 60 143 1.0 3.0 0.00 0.03 0.03 91 1010.9
20260904092501 60 231 1.0 3.0 0.00 0.03 0.03 91 1010.9
20260904092418 60 203 1.0 4.0 0.00 0.03 0.03 91 1010.9
20260904092401 60 233 1.0 4.0 0.00 0.03 0.03 91 1010.9
20260904092301 60 236 1.0 4.0 0.00 0.03 0.03 91 1010.9
20260904092200 60 236 1.0 4.0 0.00 0.03 0.03 91 1010.9
20260904092057 60 236 1.0 4.0 0.00 0.03 0.03 91 1010.8
20260904091957 60 236 1.0 4.0 0.00 0.03 0.03 91 1010.8
20260904091913 60 236 1.0 4.0 0.00 0.03 0.03 91 1010.8
20260904091855 60 237 1.0 4.0 0.00 0.03 0.03 91 1010.8
20260904091756 60 236 1.0 4.0 0.00 0.03 0.03 91 1010.8
20260904091654 60 236 1.0 4.0 0.00 0.03 0.03 91 1010.8
20260904091629 60 236 1.0 3.0 0.00 0.03 0.03 91 1010.9
20260904091551 60 236 1.0 4.0 0.00 0.03 0.03 91 1010.8
20260904091517 60 236 1.0 4.0 0.00 0.03 0.03 91 1010.9
20260904091345 60 236 1.0 3.0 0.00 0.03 0.03 91 1010.9
20260904091245 60 226 1.0 3.0 0.00 0.03 0.03 91 1010.9
20260904091146 60 208 1.0 3.0 0.00 0.03 0.03 91 1010.9
20260904091045 60 203 1.0 3.0 0.00 0.03 0.03 91 1010.9
20260904090946 60 214 1.0 3.0 0.00 0.03 0.03 91 1010.9
20260904090843 60 200 1.0 3.0 0.00 0.03 0.03 91 1010.9
20260904090744 60 200 1.0 3.0 0.00 0.03 0.03 91 1011.0
20260904090642 60 231 1.0 3.0 0.00 0.03 0.03 91 1011.0
20260904090539 60 226 1.0 3.0 0.00 0.03 0.03 91 1011.0
20260904090433 60 210 1.0 3.0 0.00 0.03 0.03 91 1011.0
20260904090333 60 210 1.0 3.0 0.00 0.03 0.03 91 1011.0
20260904090233 60 210 1.0 3.0 0.00 0.03 0.03 91 1011.0
20260904090134 60 210 1.0 3.0 0.00 0.03 0.03 91 1011.0
20260904090034 60 210 1.0 3.0 0.00 0.03 0.03 91 1011.0
20260904085934 60 219 1.0 3.0 0.00 0.03 0.03 91 1011.0
20260904085832 60 219 1.0 3.0 0.00 0.03 0.03 91 1011.0
20260904085731 60 214 1.0 3.0 0.00 0.03 0.03 91 1011.0
20260904085629 60 214 1.0 3.0 0.00 0.03 0.03 91 1011.1
20260904085527 60 211 1.0 2.0 0.00 0.03 0.03 91 1011.0
20260904085428 60 200 1.0 2.0 0.00 0.03 0.03 91 1011.0
20260904085325 60 200 1.0 2.0 0.00 0.03 0.03 91 1011.0
20260904085224 60 210 0.0 2.0 0.00 0.03 0.03 91 1011.0
20260904085124 60 205 0.0 2.0 0.00 0.03 0.03 91 1011.1
20260904085021 60 186 0.0 2.0 0.00 0.03 0.03 90 1011.1
20260904084922 60 228 0.0 2.0 0.00 0.03 0.03 91 1011.1
20260904084836 60 205 0.0 1.0 0.00 0.03 0.03 91 1011.1
20260904084819 60 204 0.0 1.0 0.00 0.03 0.03 91 1011.1
20260904084720 60 204 0.0 1.0 0.00 0.03 0.03 91 1011.1
20260904084618 60 204 0.0 1.0 0.00 0.03 0.03 91 1011.1
20260904084516 60 205 0.0 1.0 0.00 0.03 0.03 91 1011.1
20260904084412 60 204 0.0 1.0 0.00 0.03 0.03 91 1011.1
20260904084343 60 204 0.0 1.0 0.00 0.03 0.03 91 1011.1
20260904084312 60 204 0.0 1.0 0.00 0.03 0.03 91 1011.1
20260904084211 60 204 0.0 1.0 0.00 0.03 0.03 91 1011.1
20260904084112 60 204 0.0 2.0 0.00 0.03 0.03 91 1011.1
20260904084048 60 204 1.0 2.0 0.00 0.03 0.03 91 1011.1
20260904084009 60 205 0.0 2.0 0.00 0.03 0.03 91 1011.1
20260904083938 60 204 1.0 2.0 0.00 0.03 0.03 91 1011.1
20260904083808 60 204 1.0 2.0 0.00 0.03 0.03 91 1011.1
20260904083708 60 204 1.0 2.0 0.00 0.03 0.03 91 1011.1
20260904083606 60 204 1.0 2.0 0.00 0.03 0.03 91 1011.1
20260904083507 60 205 1.0 2.0 0.00 0.03 0.03 91 1011.1
20260904083404 60 205 1.0 2.0 0.00 0.03 0.03 91 1011.1
20260904083331 60 204 1.0 2.0 0.00 0.03 0.03 91 1011.1
20260904083302 60 205 1.0 2.0 0.00 0.03 0.03 91 1011.1
20260904083201 60 204 1.0 2.0 0.00 0.03 0.03 91 1011.1
20260904083100 60 200 0.0 2.0 0.00 0.03 0.03 91 1011.1
20260904083032 60 212 0.0 2.0 0.01 0.03 0.03 91 1011.1
20260904082957 60 225 0.0 2.0 0.00 0.03 0.03 91 1011.1
20260904082926 60 224 0.0 2.0 0.00 0.03 0.03 91 1011.1
20260904082755 60 212 0.0 2.0 0.01 0.03 0.03 91 1011.1
20260904082655 60 212 0.0 2.0 0.01 0.03 0.03 91 1011.1
20260904082554 60 226 0.0 2.0 0.01 0.03 0.03 91 1011.1
20260904082450 60 226 0.0 2.0 0.01 0.03 0.03 91 1011.1
20260904082352 60 226 0.0 2.0 0.01 0.03 0.03 91 1011.2
20260904082306 60 226 1.0 2.0 0.01 0.03 0.03 91 1011.1
20260904082249 60 226 1.0 2.0 0.01 0.03 0.03 91 1011.1
20260904082150 60 226 1.0 2.0 0.01 0.03 0.03 91 1011.1
20260904082047 60 226 1.0 2.0 0.01 0.03 0.03 91 1011.1
20260904081946 60 226 1.0 2.0 0.01 0.03 0.03 91 1011.2
20260904081846 60 226 1.0 2.0 0.01 0.03 0.03 91 1011.2
20260904081743 60 226 0.0 2.0 0.01 0.03 0.03 91 1011.1
20260904081643 60 232 1.0 2.0 0.01 0.03 0.03 91 1011.2
20260904081541 60 232 0.0 2.0 0.01 0.03 0.03 91 1011.2
20260904081520 60 236 0.0 2.0 0.02 0.03 0.03 91 1011.2
20260904081439 60 238 0.0 2.0 0.01 0.03 0.03 91 1011.2
20260904081405 60 238 0.0 2.0 0.01 0.03 0.03 91 1011.2
20260904081238 60 220 0.0 2.0 0.02 0.03 0.03 91 1011.2
20260904081138 60 158 0.0 2.0 0.02 0.03 0.03 91 1011.2
20260904081036 60 158 0.0 2.0 0.02 0.03 0.03 91 1011.1
20260904080933 60 136 0.0 3.0 0.02 0.03 0.03 91 1011.1
20260904080829 60 231 1.0 3.0 0.02 0.03 0.03 91 1011.2
20260904080748 60 231 1.0 3.0 0.02 0.03 0.03 91 1011.1
20260904080727 60 158 1.0 3.0 0.02 0.03 0.03 91 1011.1
20260904080628 60 158 1.0 3.0 0.02 0.03 0.03 91 1011.1
20260904080528 60 158 1.0 3.0 0.02 0.03 0.03 91 1011.1
20260904080427 60 158 1.0 3.0 0.02 0.03 0.03 91 1011.2
20260904080325 60 163 1.0 3.0 0.02 0.03 0.03 91 1011.1
20260904080226 60 162 2.0 4.0 0.02 0.03 0.03 91 1011.2
20260904080125 60 162 2.0 4.0 0.03 0.03 0.03 91 1011.2
20260904080024 60 235 2.0 4.0 0.03 0.03 0.03 91 1011.2
20260904075958 60 243 2.0 5.0 0.03 0.03 0.03 91 1011.2
20260904075922 60 207 2.0 4.0 0.03 0.03 0.03 91 1011.2
20260904075846 60 212 2.0 5.0 0.03 0.03 0.03 91 1011.2
20260904075718 60 223 2.0 5.0 0.03 0.03 0.03 91 1011.2
20260904075618 60 187 2.0 5.0 0.03 0.03 0.03 91 1011.2
20260904075517 60 224 2.0 5.0 0.03 0.03 0.03 91 1011.2
20260904075415 60 228 2.0 5.0 0.03 0.03 0.03 91 1011.2
20260904075309 61 231 2.0 5.0 0.03 0.03 0.03 91 1011.2
20260904075231 61 166 2.0 5.0 0.03 0.03 0.03 91 1011.2
20260904075210 61 229 2.0 5.0 0.03 0.03 0.03 91 1011.2
20260904075110 61 148 2.0 5.0 0.03 0.03 0.03 91 1011.2
20260904075009 61 266 2.0 5.0 0.03 0.03 0.03 91 1011.2
20260904074909 61 147 2.0 5.0 0.03 0.03 0.03 91 1011.3
20260904074810 61 225 2.0 5.0 0.03 0.03 0.03 91 1011.3
20260904074724 61 228 2.0 5.0 0.03 0.03 0.03 91 1011.3
20260904074708 61 222 2.0 5.0 0.03 0.03 0.03 91 1011.2
20260904074608 61 219 2.0 5.0 0.03 0.03 0.03 91 1011.2
20260904074506 61 229 2.0 5.0 0.03 0.03 0.03 91 1011.3
20260904074405 61 226 2.0 5.0 0.03 0.03 0.03 91 1011.2
20260904074303 61 226 2.0 5.0 0.03 0.03 0.03 91 1011.2
20260904074218 61 235 2.0 5.0 0.03 0.03 0.03 91 1011.2
20260904074202 61 221 2.0 4.0 0.03 0.03 0.03 91 1011.2
20260904074101 61 229 1.0 4.0 0.03 0.03 0.03 91 1011.2
20260904073959 61 214 1.0 3.0 0.03 0.03 0.03 91 1011.2
20260904073857 61 222 1.0 3.0 0.03 0.03 0.03 91 1011.1
20260904073755 61 155 1.0 3.0 0.03 0.03 0.03 91 1011.0
20260904073712 61 200 1.0 3.0 0.03 0.03 0.03 91 1011.1
20260904073656 61 203 1.0 3.0 0.03 0.03 0.03 91 1011.1
20260904073555 61 236 1.0 3.0 0.03 0.03 0.03 91 1011.1
20260904073453 61 229 1.0 3.0 0.03 0.03 0.03 91 1011.1
20260904073352 61 157 1.0 3.0 0.03 0.03 0.03 91 1011.0
20260904073248 61 233 1.0 3.0 0.03 0.03 0.03 91 1011.0
20260904073207 61 165 1.0 3.0 0.03 0.03 0.03 91 1011.1
20260904073146 61 165 1.0 3.0 0.03 0.03 0.03 91 1011.1
20260904073045 61 126 1.0 3.0 0.03 0.03 0.03 91 1011.0
20260904072946 61 125 1.0 3.0 0.03 0.03 0.03 91 1011.0
20260904072845 61 139 1.0 3.0 0.03 0.03 0.03 91 1011.0
20260904072744 61 142 1.0 3.0 0.02 0.02 0.03 91 1011.0
20260904072700 61 158 1.0 3.0 0.02 0.02 0.02 91 1010.9
20260904072644 61 149 1.0 3.0 0.02 0.02 0.02 91 1010.9
20260904072544 61 158 1.0 3.0 0.02 0.02 0.02 91 1011.0
20260904072441 61 104 1.0 4.0 0.02 0.02 0.02 91 1011.0
20260904072339 61 146 1.0 4.0 0.02 0.02 0.02 91 1010.9
20260904072240 61 155 1.0 4.0 0.02 0.02 0.02 91 1011.0
20260904072138 61 127 1.0 4.0 0.02 0.02 0.02 91 1010.9
20260904072038 61 127 1.0 4.0 0.02 0.02 0.02 91 1010.9
20260904071936 61 155 2.0 4.0 0.02 0.02 0.02 91 1010.9
20260904071833 61 156 2.0 4.0 0.02 0.02 0.02 91 1010.9
20260904071730 61 117 1.0 4.0 0.02 0.02 0.02 91 1010.9
20260904071627 61 148 1.0 4.0 0.02 0.02 0.02 91 1011.0
20260904071528 61 143 1.0 3.0 0.02 0.02 0.02 91 1011.0
20260904071428 61 107 1.0 3.0 0.02 0.02 0.02 91 1011.0
20260904071327 61 131 1.0 3.0 0.01 0.01 0.02 91 1011.0
20260904071223 61 123 1.0 3.0 0.01 0.01 0.01 91 1011.0
20260904071143 61 141 1.0 3.0 0.01 0.01 0.01 91 1011.1
20260904071124 62 126 1.0 3.0 0.01 0.01 0.01 91 1011.1
20260904071023 62 204 1.0 3.0 0.01 0.01 0.01 91 1011.1
20260904070924 62 148 1.0 3.0 0.01 0.01 0.01 91 1011.1
20260904070825 62 129 1.0 3.0 0.01 0.01 0.01 91 1011.1
20260904070721 62 238 1.0 5.0 0.01 0.01 0.01 91 1011.1
20260904070652 62 238 1.0 5.0 0.01 0.01 0.01 91 1011.1
20260904070619 62 238 1.0 5.0 0.01 0.01 0.01 91 1011.1
20260904070520 62 238 1.0 5.0 0.01 0.01 0.01 91 1011.2
20260904070418 62 211 1.0 5.0 0.01 0.01 0.01 91 1011.2
20260904070315 62 197 2.0 5.0 0.01 0.01 0.01 91 1011.2
20260904070210 62 197 2.0 7.0 0.01 0.01 0.01 91 1011.2
20260904070139 62 215 2.0 7.0 0.00 0.00 0.00 91 1011.2
20260904070109 62 188 2.0 7.0 0.00 0.00 0.00 91 1011.1
20260904070010 62 221 2.0 7.0 0.00 0.00 0.00 91 1011.2
20260904065910 62 203 2.0 7.0 0.00 0.00 0.00 90 1011.2
20260904065809 63 250 2.0 7.0 0.00 0.00 0.00 90 1011.2
20260904065704 63 242 2.0 7.0 0.00 0.00 0.00 88 1011.2
20260904065639 63 195 2.0 7.0 0.00 0.00 0.00 88 1011.2
20260904065603 63 195 3.0 7.0 0.00 0.00 0.00 88 1011.2
20260904065503 63 236 3.0 8.0 0.00 0.00 0.00 87 1011.2
20260904065401 63 229 3.0 8.0 0.00 0.00 0.00 87 1011.2
20260904065301 63 219 3.0 8.0 0.00 0.00 0.00 87 1011.2
20260904065158 63 239 3.0 8.0 0.00 0.00 0.00 87 1011.2
20260904065140 63 240 3.0 8.0 0.00 0.00 0.00 87 1011.2
20260904065056 63 239 4.0 8.0 0.00 0.00 0.00 87 1011.2
20260904064956 63 168 4.0 8.0 0.00 0.00 0.00 87 1011.2
20260904064856 64 231 3.0 8.0 0.00 0.00 0.00 86 1011.2
20260904064755 64 232 3.0 8.0 0.00 0.00 0.00 86 1011.2
20260904064650 64 246 3.0 8.0 0.00 0.00 0.00 86 1011.2
20260904064637 64 235 3.0 8.0 0.00 0.00 0.00 86 1011.2
20260904064550 64 240 3.0 8.0 0.00 0.00 0.00 86 1011.1
20260904064450 64 231 3.0 7.0 0.00 0.00 0.00 85 1011.2
20260904064350 64 238 3.0 7.0 0.00 0.00 0.00 85 1011.1
20260904064248 64 250 2.0 6.0 0.00 0.00 0.00 85 1011.2
20260904064148 64 225 2.0 6.0 0.00 0.00 0.00 85 1011.1
20260904064137 64 231 2.0 6.0 0.00 0.00 0.00 85 1011.1
20260904064044 64 235 2.0 6.0 0.00 0.00 0.00 85 1011.1
20260904063944 64 226 2.0 6.0 0.00 0.00 0.00 85 1011.1
20260904063844 64 210 3.0 6.0 0.00 0.00 0.00 84 1011.1
20260904063741 64 248 3.0 6.0 0.00 0.00 0.00 84 1011.1
20260904063643 64 232 3.0 6.0 0.00 0.00 0.00 84 1011.1
20260904063637 64 222 3.0 6.0 0.00 0.00 0.00 84 1011.1
20260904063535 64 231 3.0 6.0 0.00 0.00 0.00 84 1011.1
20260904063436 64 253 3.0 8.0 0.00 0.00 0.00 84 1011.1
20260904063336 64 233 3.0 8.0 0.00 0.00 0.00 84 1011.1
20260904063233 64 217 4.0 8.0 0.00 0.00 0.00 84 1011.0
20260904063136 64 235 4.0 8.0 0.00 0.00 0.00 84 1011.0
20260904063126 64 223 4.0 8.0 0.00 0.00 0.00 84 1011.0
20260904063025 64 238 4.0 8.0 0.00 0.00 0.00 84 1011.0
20260904062926 64 235 4.0 8.0 0.00 0.00 0.00 84 1011.1
20260904062826 64 266 3.0 8.0 0.00 0.00 0.00 84 1011.0
20260904062726 64 245 3.0 8.0 0.00 0.00 0.00 83 1011.0
20260904062636 64 245 3.0 8.0 0.00 0.00 0.00 83 1011.0
20260904062620 64 248 3.0 8.0 0.00 0.00 0.00 83 1011.0
20260904062520 64 229 3.0 8.0 0.00 0.00 0.00 83 1011.0
20260904062420 65 245 3.0 8.0 0.00 0.00 0.00 83 1011.0
20260904062320 65 240 2.0 8.0 0.00 0.00 0.00 83 1011.0
20260904062221 65 245 2.0 6.0 0.00 0.00 0.00 83 1011.0
20260904062136 65 240 2.0 6.0 0.00 0.00 0.00 83 1011.0
20260904062116 65 250 2.0 6.0 0.00 0.00 0.00 83 1011.0
20260904062016 65 258 2.0 6.0 0.00 0.00 0.00 83 1011.0
20260904061916 65 238 2.0 6.0 0.00 0.00 0.00 83 1011.0
20260904061908 65 243 2.0 6.0 0.00 0.00 0.00 82 1011.1
20260904061816 65 225 2.0 6.0 0.00 0.00 0.00 83 1011.0
20260904061759 65 252 2.0 6.0 0.00 0.00 0.00 82 1011.1
20260904061607 65 218 2.0 6.0 0.00 0.00 0.00 82 1011.1
20260904061508 65 236 3.0 6.0 0.00 0.00 0.00 82 1011.0
20260904061407 65 276 3.0 9.0 0.00 0.00 0.00 82 1011.1
20260904061308 65 242 3.0 9.0 0.00 0.00 0.00 82 1011.0
20260904061205 65 236 3.0 9.0 0.00 0.00 0.00 82 1011.0
20260904061134 65 215 3.0 9.0 0.00 0.00 0.00 82 1011.0
20260904061057 65 274 3.0 9.0 0.00 0.00 0.00 82 1011.0
20260904060957 65 236 3.0 9.0 0.00 0.00 0.00 82 1011.0
20260904060856 65 233 3.0 9.0 0.00 0.00 0.00 82 1011.0
20260904060757 65 236 3.0 9.0 0.00 0.00 0.00 82 1011.0
20260904060656 65 229 2.0 9.0 0.00 0.00 0.00 82 1011.0
20260904060635 65 245 2.0 9.0 0.00 0.00 0.00 82 1011.0
20260904060549 65 210 2.0 9.0 0.00 0.00 0.00 82 1010.9
20260904060449 65 221 2.0 9.0 0.00 0.00 0.00 82 1010.9
20260904060349 65 231 2.0 6.0 0.00 0.00 0.00 82 1011.0
20260904060249 65 193 2.0 6.0 0.00 0.00 0.00 82 1010.9
20260904060148 65 229 2.0 5.0 0.00 0.00 0.00 82 1011.0
20260904060134 65 239 2.0 5.0 0.00 0.00 0.00 82 1011.0
20260904060119 65 212 2.0 5.0 0.00 0.00 0.00 82 1010.9
20260904060045 65 201 2.0 4.0 0.00 0.00 0.00 82 1010.9
20260904060004 65 148 2.0 4.0 0.00 0.00 0.00 82 1010.9
20260904055844 65 212 2.0 4.0 0.00 0.00 0.00 82 1010.9
20260904055750 65 212 2.0 5.0 0.00 0.00 0.00 82 1010.9
20260904055741 65 212 2.0 5.0 0.00 0.00 0.00 82 1010.9
20260904055535 65 215 2.0 5.0 0.00 0.00 0.00 82 1010.9
20260904055435 65 203 2.0 6.0 0.00 0.00 0.00 82 1011.0
20260904055333 65 211 3.0 6.0 0.00 0.00 0.00 82 1010.9
20260904055233 65 231 3.0 7.0 0.00 0.00 0.00 82 1010.9
20260904055133 65 228 3.0 7.0 0.00 0.00 0.00 82 1011.0
20260904055028 65 218 3.0 7.0 0.00 0.00 0.00 81 1010.9
20260904054926 65 205 3.0 7.0 0.00 0.00 0.00 81 1011.0
20260904054827 65 242 2.0 7.0 0.00 0.00 0.00 81 1011.0
20260904054727 65 236 3.0 7.0 0.00 0.00 0.00 81 1010.9
20260904054643 65 239 3.0 7.0 0.00 0.00 0.00 81 1010.9
20260904054526 65 226 3.0 7.0 0.00 0.00 0.00 81 1010.9
20260904054425 65 134 3.0 8.0 0.00 0.00 0.00 81 1011.0
20260904054323 65 219 3.0 10.0 0.00 0.00 0.00 81 1011.0
20260904054223 65 243 3.0 10.0 0.00 0.00 0.00 81 1011.0
20260904054121 65 233 3.0 10.0 0.00 0.00 0.00 81 1011.0
20260904054015 65 246 3.0 10.0 0.00 0.00 0.00 81 1011.0
20260904053915 65 255 4.0 10.0 0.00 0.00 0.00 81 1011.0
20260904053821 65 262 4.0 10.0 0.00 0.00 0.00 81 1011.0
20260904053715 65 242 3.0 10.0 0.00 0.00 0.00 81 1011.1
20260904053616 65 179 4.0 10.0 0.00 0.00 0.00 80 1011.0
20260904053509 66 238 4.0 10.0 0.00 0.00 0.00 80 1011.0
20260904053409 66 236 3.0 8.0 0.00 0.00 0.00 80 1011.1
20260904053309 66 250 3.0 8.0 0.00 0.00 0.00 80 1011.1
20260904053208 66 191 3.0 8.0 0.00 0.00 0.00 80 1011.1
20260904053109 66 245 3.0 8.0 0.00 0.00 0.00 80 1011.1
20260904053006 66 226 2.0 8.0 0.00 0.00 0.00 80 1011.1
20260904052903 66 210 2.0 8.0 0.00 0.00 0.00 80 1011.1
20260904052802 66 217 2.0 8.0 0.00 0.00 0.00 80 1011.1
20260904052703 66 228 2.0 8.0 0.00 0.00 0.00 80 1011.1
20260904052604 66 221 2.0 8.0 0.00 0.00 0.00 80 1011.1
20260904052457 66 240 2.0 6.0 0.00 0.00 0.00 80 1011.1
20260904052357 66 248 2.0 6.0 0.00 0.00 0.00 80 1011.1
20260904052257 66 235 2.0 6.0 0.00 0.00 0.00 80 1011.1
20260904052157 66 233 2.0 6.0 0.00 0.00 0.00 81 1011.1
20260904052057 66 158 2.0 4.0 0.00 0.00 0.00 81 1011.1
20260904051956 66 152 2.0 4.0 0.00 0.00 0.00 81 1011.1
20260904051855 66 143 2.0 5.0 0.00 0.00 0.00 81 1011.1
20260904051755 66 224 2.0 5.0 0.00 0.00 0.00 81 1011.1
20260904051653 66 224 2.0 5.0 0.00 0.00 0.00 81 1011.1
20260904051550 66 154 2.0 5.0 0.00 0.00 0.00 81 1011.1
20260904051451 66 232 2.0 5.0 0.00 0.00 0.00 81 1011.1
20260904051349 66 242 2.0 5.0 0.00 0.00 0.00 81 1011.1
20260904051249 66 230 2.0 6.0 0.00 0.00 0.00 81 1011.1
20260904051148 66 238 2.0 6.0 0.00 0.00 0.00 80 1011.1
20260904051046 66 224 2.0 6.0 0.00 0.00 0.00 80 1011.1
20260904050941 66 235 2.0 6.0 0.00 0.00 0.00 80 1011.1
20260904050842 66 187 2.0 6.0 0.00 0.00 0.00 80 1011.2
20260904050759 66 232 3.0 7.0 0.00 0.00 0.00 80 1011.1
20260904050742 66 233 2.0 6.0 0.00 0.00 0.00 80 1011.1
20260904050655 66 232 2.0 7.0 0.00 0.00 0.00 80 1011.2
20260904050644 66 232 3.0 7.0 0.00 0.00 0.00 80 1011.1
20260904050435 66 214 3.0 7.0 0.00 0.00 0.00 80 1011.1
20260904050333 66 231 3.0 7.0 0.00 0.00 0.00 80 1011.1
20260904050320 66 219 3.0 7.0 0.00 0.00 0.00 80 1011.1
20260904050232 66 210 3.0 7.0 0.00 0.00 0.00 80 1011.1
20260904050203 66 223 3.0 7.0 0.00 0.00 0.00 80 1011.1
20260904050033 66 219 3.0 7.0 0.00 0.00 0.00 80 1011.1
20260904045929 66 190 3.0 7.0 0.00 0.00 0.00 80 1011.1
20260904045827 66 233 3.0 7.0 0.00 0.00 0.00 80 1011.0
20260904045727 66 221 3.0 7.0 0.00 0.00 0.00 80 1011.0
20260904045628 66 230 3.0 9.0 0.00 0.00 0.00 80 1011.0
20260904045538 66 243 3.0 9.0 0.00 0.00 0.00 80 1010.9
20260904045527 66 222 3.0 9.0 0.00 0.00 0.00 80 1010.9
20260904045421 67 242 3.0 9.0 0.00 0.00 0.00 80 1010.9
20260904045321 67 233 3.0 9.0 0.00 0.00 0.00 80 1010.9
20260904045221 67 236 3.0 9.0 0.00 0.00 0.00 79 1010.8
20260904045121 67 217 3.0 9.0 0.00 0.00 0.00 79 1010.9
20260904045037 67 232 2.0 9.0 0.00 0.00 0.00 79 1010.8
20260904045021 67 231 2.0 9.0 0.00 0.00 0.00 79 1010.8
20260904044915 67 232 2.0 9.0 0.00 0.00 0.00 79 1010.9
20260904044819 67 235 2.0 9.0 0.00 0.00 0.00 79 1010.9
20260904044715 67 216 2.0 9.0 0.00 0.00 0.00 79 1010.8
20260904044615 67 232 1.0 5.0 0.00 0.00 0.00 79 1010.9
20260904044537 67 165 1.0 5.0 0.00 0.00 0.00 79 1010.9
20260904044514 67 215 1.0 5.0 0.00 0.00 0.00 79 1010.9
20260904044411 67 142 1.0 4.0 0.00 0.00 0.00 79 1010.9
20260904044312 67 228 1.0 4.0 0.00 0.00 0.00 79 1010.9
20260904044211 67 246 1.0 4.0 0.00 0.00 0.00 80 1010.8
20260904044111 67 235 1.0 4.0 0.00 0.00 0.00 79 1010.9
20260904044035 67 235 1.0 4.0 0.00 0.00 0.00 79 1010.9
20260904044009 67 242 1.0 4.0 0.00 0.00 0.00 79 1010.9
20260904043908 67 240 1.0 5.0 0.00 0.00 0.00 79 1010.9
20260904043807 67 238 1.0 5.0 0.00 0.00 0.00 79 1010.9
20260904043707 67 233 1.0 5.0 0.00 0.00 0.00 79 1010.9
20260904043605 67 250 1.0 5.0 0.00 0.00 0.00 79 1011.0
20260904043533 67 231 1.0 5.0 0.00 0.00 0.00 79 1011.0
20260904043502 67 231 1.0 5.0 0.00 0.00 0.00 79 1010.9
20260904043359 67 232 1.0 5.0 0.00 0.00 0.00 79 1011.0
20260904043257 67 238 1.0 5.0 0.00 0.00 0.00 79 1011.0
20260904043157 67 232 1.0 5.0 0.00 0.00 0.00 79 1011.0
20260904043056 67 248 1.0 6.0 0.00 0.00 0.00 79 1011.0
20260904043033 67 228 1.0 6.0 0.00 0.00 0.00 79 1011.0
20260904042956 67 269 1.0 6.0 0.00 0.00 0.00 79 1011.0
20260904042856 67 241 1.0 8.0 0.00 0.00 0.00 79 1011.0
20260904042755 67 225 2.0 8.0 0.00 0.00 0.00 79 1011.0
20260904042656 67 225 2.0 8.0 0.00 0.00 0.00 79 1011.0
20260904042533 67 225 2.0 8.0 0.00 0.00 0.00 79 1011.0
20260904042450 67 214 2.0 8.0 0.00 0.00 0.00 79 1011.0
20260904042345 67 193 2.0 8.0 0.00 0.00 0.00 79 1011.0
20260904042252 67 242 2.0 8.0 0.00 0.00 0.00 79 1011.0
20260904042245 67 250 2.0 8.0 0.00 0.00 0.00 79 1011.0
20260904042148 67 240 2.0 8.0 0.00 0.00 0.00 79 1011.0
20260904042139 67 228 2.0 8.0 0.00 0.00 0.00 79 1011.0
20260904041944 67 231 2.0 8.0 0.00 0.00 0.00 79 1011.0
20260904041843 67 250 1.0 6.0 0.00 0.00 0.00 79 1011.0
20260904041743 67 207 1.0 6.0 0.00 0.00 0.00 79 1011.0
20260904041644 67 226 1.0 3.0 0.00 0.00 0.00 79 1011.0
20260904041529 67 207 1.0 3.0 0.00 0.00 0.00 79 1011.0
20260904041439 67 232 1.0 3.0 0.00 0.00 0.00 79 1010.9
20260904041335 67 233 1.0 3.0 0.00 0.00 0.00 79 1011.0
20260904041232 67 231 1.0 3.0 0.00 0.00 0.00 79 1010.9
20260904041134 67 235 1.0 3.0 0.00 0.00 0.00 79 1010.9
20260904041035 67 238 0.0 3.0 0.00 0.00 0.00 79 1010.9
20260904041027 67 239 0.0 3.0 0.00 0.00 0.00 79 1010.9
20260904040933 67 231 0.0 3.0 0.00 0.00 0.00 80 1010.9
20260904040833 67 262 0.0 3.0 0.00 0.00 0.00 80 1010.9
20260904040752 67 242 0.0 1.0 0.00 0.00 0.00 80 1010.9
20260904040731 67 241 0.0 1.0 0.00 0.00 0.00 80 1010.9
20260904040644 67 241 0.0 1.0 0.00 0.00 0.00 80 1011.0
20260904040633 67 242 0.0 1.0 0.00 0.00 0.00 80 1010.9
20260904040426 67 242 0.0 1.0 0.00 0.00 0.00 80 1010.9
20260904040323 67 242 0.0 2.0 0.00 0.00 0.00 80 1010.9
20260904040221 67 242 0.0 4.0 0.00 0.00 0.00 80 1010.8
20260904040121 67 248 0.0 4.0 0.00 0.00 0.00 80 1010.9
20260904040028 67 246 0.0 4.0 0.00 0.00 0.00 80 1010.9
20260904040021 67 245 0.0 4.0 0.00 0.00 0.00 80 1010.9
20260904035921 67 246 0.0 4.0 0.00 0.00 0.00 80 1010.9
20260904035820 67 246 0.0 4.0 0.00 0.00 0.00 80 1010.9
20260904035719 67 246 0.0 4.0 0.00 0.00 0.00 80 1010.9
20260904035618 67 248 0.0 4.0 0.00 0.00 0.00 80 1010.9
20260904035516 67 246 0.0 4.0 0.00 0.00 0.00 80 1010.9
20260904035415 67 248 0.0 4.0 0.00 0.00 0.00 80 1010.9
20260904035309 67 231 0.0 3.0 0.00 0.00 0.00 80 1010.9
20260904035209 67 243 0.0 4.0 0.00 0.00 0.00 80 1010.9
20260904035108 67 243 0.0 4.0 0.00 0.00 0.00 80 1010.9
20260904035009 67 243 0.0 4.0 0.00 0.00 0.00 80 1010.9
20260904034908 67 243 0.0 4.0 0.00 0.00 0.00 80 1010.9
20260904034802 67 243 0.0 4.0 0.00 0.00 0.00 80 1011.0
20260904034703 67 243 0.0 4.0 0.00 0.00 0.00 80 1010.9
20260904034603 67 243 0.0 4.0 0.00 0.00 0.00 80 1010.9
20260904034504 67 243 0.0 4.0 0.00 0.00 0.00 80 1010.9
20260904034402 67 239 0.0 4.0 0.00 0.00 0.00 80 1010.9
20260904034259 67 241 0.0 4.0 0.00 0.00 0.00 80 1010.9
20260904034159 67 241 0.0 3.0 0.00 0.00 0.00 80 1010.9
20260904034059 67 242 0.0 3.0 0.00 0.00 0.00 80 1010.9
20260904034021 67 241 0.0 3.0 0.00 0.00 0.00 80 1010.9
20260904033959 67 242 0.0 3.0 0.00 0.00 0.00 80 1010.9
20260904033856 67 242 0.0 3.0 0.00 0.00 0.00 80 1010.9
20260904033753 67 235 0.0 4.0 0.00 0.00 0.00 80 1010.9
20260904033652 67 204 0.0 4.0 0.00 0.00 0.00 80 1010.9
20260904033521 67 204 1.0 4.0 0.00 0.00 0.00 80 1010.8
20260904033451 67 236 1.0 4.0 0.00 0.00 0.00 80 1010.9
20260904033350 67 236 1.0 4.0 0.00 0.00 0.00 80 1010.9
20260904033251 67 236 1.0 4.0 0.00 0.00 0.00 80 1010.9
20260904033148 67 236 1.0 4.0 0.00 0.00 0.00 80 1010.8
20260904033020 67 236 1.0 4.0 0.00 0.00 0.00 80 1010.8
20260904032947 67 236 1.0 4.0 0.00 0.00 0.00 80 1010.8
20260904032844 67 236 1.0 7.0 0.00 0.00 0.00 80 1010.8
20260904032740 67 239 1.0 7.0 0.00 0.00 0.00 80 1010.8
20260904032641 67 253 1.0 7.0 0.00 0.00 0.00 80 1010.8
20260904032541 67 235 1.0 7.0 0.00 0.00 0.00 80 1010.8
20260904032518 67 236 1.0 7.0 0.00 0.00 0.00 80 1010.8
20260904032440 67 239 1.0 7.0 0.00 0.00 0.00 80 1010.7
20260904032336 67 250 1.0 7.0 0.00 0.00 0.00 80 1010.7
20260904032231 67 250 1.0 7.0 0.00 0.00 0.00 80 1010.7
20260904032130 67 229 0.0 7.0 0.00 0.00 0.00 79 1010.7
20260904032031 67 232 0.0 7.0 0.00 0.00 0.00 79 1010.7
20260904032013 67 232 0.0 7.0 0.00 0.00 0.00 79 1010.6
20260904031931 67 240 0.0 7.0 0.00 0.00 0.00 79 1010.6
20260904031830 67 257 0.0 2.0 0.00 0.00 0.00 79 1010.6
20260904031726 67 243 0.0 3.0 0.00 0.00 0.00 79 1010.7
20260904031626 67 243 0.0 3.0 0.00 0.00 0.00 79 1010.6
20260904031525 67 245 1.0 4.0 0.00 0.00 0.00 79 1010.6
20260904031507 67 243 1.0 4.0 0.00 0.00 0.00 79 1010.5
20260904031425 67 243 1.0 4.0 0.00 0.00 0.00 79 1010.5
20260904031324 67 233 1.0 4.0 0.00 0.00 0.00 79 1010.5
20260904031223 67 239 1.0 4.0 0.00 0.00 0.00 79 1010.5
20260904031217 67 239 0.0 4.0 0.00 0.00 0.00 79 1010.5
20260904031126 67 239 1.0 4.0 0.00 0.00 0.00 79 1010.5
20260904031023 67 239 1.0 4.0 0.00 0.00 0.00 79 1010.5
20260904030921 67 231 0.0 4.0 0.00 0.00 0.00 79 1010.5
20260904030818 67 231 0.0 4.0 0.00 0.00 0.00 79 1010.5
20260904030723 67 233 0.0 2.0 0.00 0.00 0.00 79 1010.5
20260904030715 67 245 0.0 4.0 0.00 0.00 0.00 79 1010.5
20260904030613 67 217 0.0 4.0 0.00 0.00 0.00 80 1010.5
20260904030602 67 233 0.0 2.0 0.00 0.00 0.00 80 1010.5
20260904030413 67 233 0.0 3.0 0.00 0.00 0.00 79 1010.5
20260904030312 67 233 1.0 4.0 0.00 0.00 0.00 79 1010.4
20260904030216 67 232 1.0 9.0 0.00 0.00 0.00 79 1010.4
20260904030209 67 233 1.0 9.0 0.00 0.00 0.00 79 1010.5
20260904030107 67 233 1.0 9.0 0.00 0.00 0.00 79 1010.4
20260904030059 67 232 1.0 9.0 0.00 0.00 0.00 79 1010.4
20260904025907 67 232 1.0 9.0 0.00 0.00 0.00 79 1010.4
20260904025810 67 232 1.0 9.0 0.00 0.00 0.00 79 1010.4
20260904025705 67 259 1.0 9.0 0.00 0.00 0.00 79 1010.4
20260904025701 67 233 1.0 9.0 0.00 0.00 0.00 79 1010.4
20260904025600 67 232 1.0 9.0 0.00 0.00 0.00 79 1010.4
20260904025550 67 179 1.0 9.0 0.00 0.00 0.00 79 1010.4
20260904025401 67 219 1.0 9.0 0.00 0.00 0.00 79 1010.4
20260904025300 67 280 1.0 9.0 0.00 0.00 0.00 79 1010.4
20260904025158 67 235 1.0 11.0 0.00 0.00 0.00 79 1010.4
20260904025055 67 235 2.0 11.0 0.00 0.00 0.00 79 1010.4
20260904024954 67 226 2.0 11.0 0.00 0.00 0.00 79 1010.4
20260904024936 67 212 2.0 11.0 0.00 0.00 0.00 79 1010.4
20260904024855 67 212 2.0 11.0 0.00 0.00 0.00 79 1010.4
20260904024754 67 233 2.0 11.0 0.00 0.00 0.00 79 1010.4
20260904024655 67 245 2.0 11.0 0.00 0.00 0.00 79 1010.5
20260904024553 67 253 2.0 11.0 0.00 0.00 0.00 79 1010.5
20260904024453 67 290 2.0 11.0 0.00 0.00 0.00 79 1010.5
20260904024430 67 311 2.0 12.0 0.00 0.00 0.00 79 1010.5
20260904024352 68 232 2.0 12.0 0.00 0.00 0.00 79 1010.5
20260904024248 68 240 2.0 12.0 0.00 0.00 0.00 80 1010.5
20260904024144 68 250 2.0 12.0 0.00 0.00 0.00 80 1010.4
20260904024043 68 229 2.0 12.0 0.00 0.00 0.00 80 1010.5
20260904023943 68 224 2.0 12.0 0.00 0.00 0.00 80 1010.5
20260904023924 68 284 2.0 12.0 0.00 0.00 0.00 80 1010.5
20260904023842 68 281 2.0 12.0 0.00 0.00 0.00 80 1010.6
20260904023742 68 248 2.0 12.0 0.00 0.00 0.00 80 1010.5
20260904023647 68 234 2.0 7.0 0.00 0.00 0.00 79 1010.6
20260904023634 68 258 2.0 12.0 0.00 0.00 0.00 80 1010.5
20260904023541 68 257 2.0 12.0 0.00 0.00 0.00 79 1010.5
20260904023532 68 193 2.0 7.0 0.00 0.00 0.00 79 1010.6
20260904023333 68 243 2.0 7.0 0.00 0.00 0.00 79 1010.6
20260904023232 68 276 2.0 10.0 0.00 0.00 0.00 79 1010.6
20260904023147 68 214 3.0 10.0 0.00 0.00 0.00 79 1010.6
20260904023133 68 276 2.0 10.0 0.00 0.00 0.00 79 1010.6
20260904023041 68 273 2.0 10.0 0.00 0.00 0.00 79 1010.6
20260904023033 68 219 3.0 10.0 0.00 0.00 0.00 79 1010.6
20260904022829 68 228 2.0 10.0 0.00 0.00 0.00 79 1010.6
20260904022727 68 335 2.0 10.0 0.00 0.00 0.00 79 1010.6
20260904022626 68 280 2.0 10.0 0.00 0.00 0.00 79 1010.6
20260904022521 68 239 2.0 10.0 0.00 0.00 0.00 79 1010.5
20260904022421 68 298 3.0 12.0 0.00 0.00 0.00 79 1010.6
20260904022321 68 231 3.0 12.0 0.00 0.00 0.00 79 1010.5
20260904022220 68 223 2.0 12.0 0.00 0.00 0.00 79 1010.5
20260904022115 68 302 2.0 12.0 0.00 0.00 0.00 78 1010.5
20260904022015 68 253 2.0 12.0 0.00 0.00 0.00 78 1010.5
20260904021923 68 226 2.0 12.0 0.00 0.00 0.00 78 1010.5
20260904021915 68 257 2.0 12.0 0.00 0.00 0.00 78 1010.5
20260904021815 68 284 2.0 12.0 0.00 0.00 0.00 78 1010.6
20260904021714 68 219 2.0 12.0 0.00 0.00 0.00 78 1010.6
20260904021611 68 224 2.0 12.0 0.00 0.00 0.00 78 1010.5
20260904021509 68 255 2.0 12.0 0.00 0.00 0.00 78 1010.6
20260904021422 68 302 2.0 8.0 0.00 0.00 0.00 77 1010.6
20260904021410 68 262 2.0 8.0 0.00 0.00 0.00 77 1010.5
20260904021310 68 256 2.0 8.0 0.00 0.00 0.00 77 1010.5
20260904021209 69 159 2.0 8.0 0.00 0.00 0.00 77 1010.6
20260904021103 69 250 1.0 8.0 0.00 0.00 0.00 77 1010.6
20260904021004 69 246 1.0 7.0 0.00 0.00 0.00 77 1010.6
20260904020926 69 274 1.0 5.0 0.00 0.00 0.00 77 1010.6
20260904020903 69 225 1.0 5.0 0.00 0.00 0.00 77 1010.6
20260904020803 69 170 1.0 5.0 0.00 0.00 0.00 77 1010.6
20260904020703 69 318 1.0 5.0 0.00 0.00 0.00 77 1010.6
20260904020559 69 282 1.0 5.0 0.00 0.00 0.00 76 1010.6
20260904020457 69 285 1.0 8.0 0.00 0.00 0.00 76 1010.6
20260904020424 69 284 1.0 8.0 0.00 0.00 0.00 76 1010.6
20260904020357 69 284 1.0 8.0 0.00 0.00 0.00 76 1010.7
20260904020257 69 270 1.0 8.0 0.00 0.00 0.00 76 1010.7
20260904020156 69 277 1.0 8.0 0.00 0.00 0.00 76 1010.7
20260904020055 69 259 2.0 8.0 0.00 0.00 0.00 76 1010.7
20260904015954 69 258 2.0 8.0 0.00 0.00 0.00 76 1010.7
20260904015919 69 259 2.0 8.0 0.00 0.00 0.00 75 1010.7
20260904015852 69 259 2.0 8.0 0.00 0.00 0.00 75 1010.7
20260904015753 69 273 2.0 8.0 0.00 0.00 0.00 75 1010.7
20260904015650 69 228 2.0 8.0 0.00 0.00 0.00 75 1010.7
20260904015549 69 284 2.0 8.0 0.00 0.00 0.00 75 1010.8
20260904015446 69 233 2.0 7.0 0.00 0.00 0.00 75 1010.8
20260904015419 69 226 2.0 7.0 0.00 0.00 0.00 75 1010.8
20260904015413 69 252 2.0 10.0 0.00 0.00 0.00 74 1010.8
20260904015346 69 232 2.0 7.0 0.00 0.00 0.00 75 1010.8
20260904015256 69 271 2.0 7.0 0.00 0.00 0.00 75 1010.8
20260904015143 69 282 2.0 7.0 0.00 0.00 0.00 74 1010.8
20260904015037 69 312 2.0 7.0 0.00 0.00 0.00 74 1010.8
20260904015025 69 225 2.0 10.0 0.00 0.00 0.00 74 1010.8
20260904014837 69 246 2.0 10.0 0.00 0.00 0.00 74 1010.8
20260904014737 69 270 2.0 10.0 0.00 0.00 0.00 74 1010.7
20260904014634 70 245 2.0 10.0 0.00 0.00 0.00 74 1010.7
20260904014536 70 305 2.0 10.0 0.00 0.00 0.00 74 1010.7
20260904014417 70 253 2.0 10.0 0.00 0.00 0.00 74 1010.7
20260904014331 70 233 2.0 10.0 0.00 0.00 0.00 74 1010.7
20260904014231 70 243 2.0 10.0 0.00 0.00 0.00 74 1010.7
20260904014129 70 205 1.0 10.0 0.00 0.00 0.00 74 1010.7
20260904014023 70 296 1.0 10.0 0.00 0.00 0.00 74 1010.7
20260904013924 70 242 1.0 8.0 0.00 0.00 0.00 74 1010.7
20260904013916 70 239 1.0 8.0 0.00 0.00 0.00 74 1010.7
20260904013823 70 239 1.0 8.0 0.00 0.00 0.00 74 1010.7
20260904013722 70 242 1.0 8.0 0.00 0.00 0.00 74 1010.6
20260904013625 70 217 1.0 8.0 0.00 0.00 0.00 74 1010.7
20260904013519 70 232 1.0 8.0 0.00 0.00 0.00 74 1010.8
20260904013418 70 248 1.0 8.0 0.00 0.00 0.00 74 1010.7
20260904013317 70 290 1.0 7.0 0.00 0.00 0.00 74 1010.6
20260904013218 70 311 1.0 7.0 0.00 0.00 0.00 74 1010.7
20260904013115 70 335 1.0 7.0 0.00 0.00 0.00 74 1010.7
20260904013008 70 312 1.0 7.0 0.00 0.00 0.00 74 1010.7
20260904012916 70 311 1.0 7.0 0.00 0.00 0.00 74 1010.7
20260904012909 70 312 2.0 7.0 0.00 0.00 0.00 74 1010.7
20260904012807 70 311 2.0 8.0 0.00 0.00 0.00 74 1010.8
20260904012708 70 304 2.0 8.0 0.00 0.00 0.00 74 1010.8
20260904012607 70 266 2.0 8.0 0.00 0.00 0.00 74 1010.8
20260904012503 70 235 2.0 8.0 0.00 0.00 0.00 74 1010.8
20260904012417 70 243 2.0 8.0 0.00 0.00 0.00 74 1010.8
20260904012403 70 231 2.0 8.0 0.00 0.00 0.00 74 1010.8
20260904012306 70 239 2.0 8.0 0.00 0.00 0.00 74 1010.8
20260904012204 70 273 2.0 8.0 0.00 0.00 0.00 74 1010.8
20260904012100 70 273 2.0 8.0 0.00 0.00 0.00 73 1010.9
20260904011927 70 273 2.0 8.0 0.00 0.00 0.00 73 1010.9
20260904011853 70 239 2.0 8.0 0.00 0.00 0.00 73 1010.9
20260904011752 70 245 2.0 8.0 0.00 0.00 0.00 73 1010.8
20260904011653 70 235 2.0 8.0 0.00 0.00 0.00 73 1010.9
20260904011552 70 269 2.0 8.0 0.00 0.00 0.00 73 1010.9
20260904011450 70 250 1.0 6.0 0.00 0.00 0.00 73 1010.9
20260904011422 70 240 1.0 6.0 0.00 0.00 0.00 73 1010.9
20260904011349 70 257 1.0 6.0 0.00 0.00 0.00 73 1010.9
20260904011249 70 245 1.0 6.0 0.00 0.00 0.00 73 1010.9
20260904011147 70 301 1.0 6.0 0.00 0.00 0.00 73 1010.9
20260904011045 71 253 2.0 10.0 0.00 0.00 0.00 73 1010.9
20260904010941 71 240 2.0 10.0 0.00 0.00 0.00 73 1010.9
20260904010909 71 321 2.0 10.0 0.00 0.00 0.00 73 1010.9
20260904010838 71 350 2.0 10.0 0.00 0.00 0.00 72 1010.9
20260904010739 71 311 2.0 10.0 0.00 0.00 0.00 72 1010.9
20260904010638 71 233 2.0 10.0 0.00 0.00 0.00 72 1010.9
20260904010536 71 240 2.0 10.0 0.00 0.00 0.00 72 1010.9
20260904010410 71 240 2.0 10.0 0.00 0.00 0.00 72 1010.9
20260904010331 71 241 2.0 10.0 0.00 0.00 0.00 72 1010.9
20260904010232 71 264 2.0 10.0 0.00 0.00 0.00 72 1010.9
20260904010132 71 245 2.0 10.0 0.00 0.00 0.00 72 1011.0
20260904010030 71 256 2.0 5.0 0.00 0.00 0.00 71 1011.0
20260904005929 71 339 2.0 5.0 0.00 0.00 0.00 72 1011.0
20260904005911 71 319 2.0 5.0 0.00 0.00 0.00 72 1011.0
20260904005827 71 294 2.0 5.0 0.00 0.00 0.00 72 1011.0
20260904005727 71 256 2.0 5.0 0.00 0.00 0.00 71 1011.0
20260904005626 71 260 1.0 5.0 0.00 0.00 0.00 71 1011.0
20260904005523 71 238 1.0 5.0 0.00 0.00 0.00 71 1011.0
20260904005410 71 301 2.0 5.0 0.00 0.00 0.00 71 1011.0
20260904005318 71 294 2.0 7.0 0.00 0.00 0.00 71 1011.0
20260904005217 71 310 2.0 7.0 0.00 0.00 0.00 71 1011.0
20260904005132 71 203 2.0 7.0 0.00 0.00 0.00 70 1011.0
20260904005117 71 184 2.0 7.0 0.00 0.00 0.00 71 1011.0
20260904005025 71 229 2.0 7.0 0.00 0.00 0.00 70 1011.0
20260904005015 71 203 2.0 7.0 0.00 0.00 0.00 70 1011.0
20260904004808 71 207 2.0 7.0 0.00 0.00 0.00 70 1011.0
20260904004710 71 277 2.0 7.0 0.00 0.00 0.00 70 1010.9
20260904004607 72 253 1.0 7.0 0.00 0.00 0.00 70 1011.0
20260904004507 72 180 1.0 7.0 0.00 0.00 0.00 70 1011.0
20260904004409 72 276 1.0 7.0 0.00 0.00 0.00 70 1011.0
20260904004403 72 275 1.0 7.0 0.00 0.00 0.00 70 1011.0
20260904004301 72 277 1.0 6.0 0.00 0.00 0.00 70 1011.0
20260904004201 72 115 1.0 4.0 0.00 0.00 0.00 70 1011.0
20260904004132 72 310 1.0 4.0 0.00 0.00 0.00 70 1011.0
20260904004101 72 321 1.0 4.0 0.00 0.00 0.00 70 1011.0
20260904004020 72 177 1.0 4.0 0.00 0.00 0.00 70 1010.9
20260904003855 72 333 1.0 4.0 0.00 0.00 0.00 70 1011.0
20260904003758 72 233 1.0 4.0 0.00 0.00 0.00 70 1011.0
20260904003656 72 348 1.0 5.0 0.00 0.00 0.00 70 1011.0
20260904003555 72 260 1.0 5.0 0.00 0.00 0.00 70 1011.0
20260904003452 72 274 2.0 5.0 0.00 0.00 0.00 70 1011.0
20260904003412 72 273 2.0 6.0 0.00 0.00 0.00 70 1010.9
20260904003350 72 148 2.0 6.0 0.00 0.00 0.00 69 1010.9
20260904003247 72 328 2.0 6.0 0.00 0.00 0.00 69 1011.0
20260904003147 72 217 2.0 6.0 0.00 0.00 0.00 69 1010.9
20260904003047 72 150 2.0 6.0 0.00 0.00 0.00 69 1010.9
20260904002944 72 222 2.0 6.0 0.00 0.00 0.00 69 1011.0
20260904002909 72 207 2.0 6.0 0.00 0.00 0.00 69 1010.9
20260904002841 72 231 2.0 6.0 0.00 0.00 0.00 69 1010.9
20260904002740 72 253 1.0 6.0 0.00 0.00 0.00 69 1010.9
20260904002641 72 256 1.0 6.0 0.00 0.00 0.00 69 1010.8
20260904002624 73 274 1.0 6.0 0.00 0.00 0.00 68 1010.8
20260904002540 72 270 1.0 6.0 0.00 0.00 0.00 69 1010.8
20260904002520 72 224 1.0 6.0 0.00 0.00 0.00 68 1010.8
20260904002335 73 273 1.0 6.0 0.00 0.00 0.00 69 1010.8
20260904002236 73 136 1.0 6.0 0.00 0.00 0.00 69 1010.9
20260904002137 73 238 1.0 6.0 0.00 0.00 0.00 69 1010.9
20260904002035 73 305 1.0 6.0 0.00 0.00 0.00 69 1010.8
20260904001933 73 305 1.0 7.0 0.00 0.00 0.00 69 1010.8
20260904001909 73 304 1.0 7.0 0.00 0.00 0.00 69 1010.8
20260904001833 73 305 1.0 7.0 0.00 0.00 0.00 69 1010.8
20260904001733 73 280 1.0 7.0 0.00 0.00 0.00 68 1010.8
20260904001634 73 242 1.0 7.0 0.00 0.00 0.00 68 1010.8
20260904001531 73 288 1.0 7.0 0.00 0.00 0.00 68 1010.8
20260904001428 73 212 1.0 7.0 0.00 0.00 0.00 68 1010.8
20260904001407 73 290 1.0 7.0 0.00 0.00 0.00 68 1010.9
20260904001329 73 283 1.0 7.0 0.00 0.00 0.00 68 1010.9
20260904001228 73 283 1.0 7.0 0.00 0.00 0.00 68 1010.8
20260904001129 73 257 1.0 7.0 0.00 0.00 0.00 68 1010.9
20260904001028 73 300 1.0 8.0 0.00 0.00 0.00 68 1010.9
20260904000930 73 236 1.0 8.0 0.00 0.00 0.00 68 1010.9
20260904000919 73 197 2.0 9.0 0.00 0.00 0.00 68 1010.9
20260904000829 73 250 2.0 9.0 0.00 0.00 0.00 68 1010.9
20260904000727 73 250 2.0 9.0 0.00 0.00 0.00 67 1010.9
20260904000627 73 250 2.0 9.0 0.00 0.00 0.00 67 1010.9
20260904000526 73 250 2.0 9.0 0.00 0.00 0.00 67 1010.9
20260904000426 73 250 2.0 9.0 0.00 0.00 0.00 67 1010.9
20260904000410 73 233 2.0 9.0 0.00 0.00 0.00 67 1011.0
20260904000327 73 238 2.0 9.0 0.00 0.00 0.00 66 1011.0
20260904000226 73 283 2.0 10.0 0.00 0.00 0.00 66 1011.0
20260904000126 74 297 2.0 10.0 0.00 0.00 0.00 66 1011.0
20260904000021 74 238 2.0 10.0 0.00 0.00 0.00 66 1010.9
20260903235920 74 274 2.0 10.0 0.00 0.00 0.00 66 1010.9
20260903235902 74 26 2.0 10.0 0.00 0.00 0.00 66 1010.9
20260903235821 74 325 2.0 10.0 0.00 0.00 0.00 67 1010.9
20260903235720 74 288 2.0 10.0 0.00 0.00 0.00 66 1010.9
20260903235617 74 325 2.0 10.0 0.00 0.00 0.00 67 1010.9
20260903235515 74 201 2.0 10.0 0.00 0.00 0.00 66 1010.9
20260903235415 74 239 2.0 10.0 0.00 0.00 0.00 66 1010.9
20260903235356 74 222 2.0 10.0 0.00 0.00 0.00 66 1010.9
20260903235315 74 326 2.0 10.0 0.00 0.00 0.00 66 1010.9
20260903235214 74 219 2.0 10.0 0.00 0.00 0.00 66 1011.0
20260903235110 74 252 2.0 10.0 0.00 0.00 0.00 66 1011.0
20260903235008 74 273 2.0 12.0 0.00 0.00 0.00 66 1010.9
20260903234909 74 232 2.0 12.0 0.00 0.00 0.00 66 1010.9
20260903234850 74 281 2.0 12.0 0.00 0.00 0.00 66 1010.9
20260903234809 74 136 2.0 12.0 0.00 0.00 0.00 66 1010.9
20260903234709 74 161 2.0 12.0 0.00 0.00 0.00 66 1011.0
20260903234602 74 317 2.0 12.0 0.00 0.00 0.00 66 1010.9
20260903234504 74 6 2.0 12.0 0.00 0.00 0.00 66 1010.9
20260903234403 74 293 2.0 12.0 0.00 0.00 0.00 66 1010.9
20260903234344 74 327 2.0 12.0 0.00 0.00 0.00 66 1010.9
20260903234302 74 218 2.0 12.0 0.00 0.00 0.00 66 1011.0
20260903234201 74 148 2.0 12.0 0.00 0.00 0.00 66 1011.0
20260903234059 74 214 2.0 12.0 0.00 0.00 0.00 66 1011.0
20260903233958 74 314 2.0 8.0 0.00 0.00 0.00 66 1011.0
20260903233858 74 8 2.0 6.0 0.00 0.00 0.00 66 1011.0
20260903233838 74 250 2.0 6.0 0.00 0.00 0.00 66 1011.0
20260903233759 74 266 2.0 7.0 0.00 0.00 0.00 66 1011.0
20260903233655 74 291 2.0 9.0 0.00 0.00 0.00 66 1011.0
20260903233602 74 259 3.0 10.0 0.00 0.00 0.00 65 1011.0
20260903233551 74 297 2.0 9.0 0.00 0.00 0.00 66 1011.0
20260903233451 74 248 3.0 9.0 0.00 0.00 0.00 66 1011.0
20260903233441 74 318 3.0 10.0 0.00 0.00 0.00 65 1011.0
20260903233251 74 233 3.0 10.0 0.00 0.00 0.00 65 1011.0
20260903233150 74 256 3.0 10.0 0.00 0.00 0.00 66 1011.0
20260903233053 74 200 3.0 10.0 0.00 0.00 0.00 65 1011.0
20260903233047 74 253 3.0 10.0 0.00 0.00 0.00 66 1011.0
20260903232946 74 273 3.0 10.0 0.00 0.00 0.00 65 1011.0
20260903232935 74 256 3.0 10.0 0.00 0.00 0.00 65 1011.0
20260903232745 74 288 3.0 10.0 0.00 0.00 0.00 65 1011.0
20260903232645 74 280 3.0 10.0 0.00 0.00 0.00 65 1011.0
20260903232544 75 277 2.0 11.0 0.00 0.00 0.00 65 1011.0
20260903232540 74 274 3.0 10.0 0.00 0.00 0.00 65 1011.0
20260903232438 75 281 2.0 11.0 0.00 0.00 0.00 65 1011.0
20260903232429 75 277 2.0 11.0 0.00 0.00 0.00 65 1011.0
20260903232239 75 231 3.0 11.0 0.00 0.00 0.00 65 1011.0
20260903232138 75 305 3.0 11.0 0.00 0.00 0.00 65 1011.1
20260903232035 75 287 3.0 11.0 0.00 0.00 0.00 65 1011.0
20260903231933 75 310 3.0 11.0 0.00 0.00 0.00 65 1011.0
20260903231832 75 321 3.0 11.0 0.00 0.00 0.00 64 1011.0
20260903231817 75 267 3.0 11.0 0.00 0.00 0.00 64 1011.0
20260903231733 75 308 3.0 11.0 0.00 0.00 0.00 64 1011.0
20260903231632 75 253 3.0 11.0 0.00 0.00 0.00 64 1011.1
20260903231530 75 236 3.0 11.0 0.00 0.00 0.00 64 1011.0
20260903231430 75 266 3.0 11.0 0.00 0.00 0.00 63 1011.0
20260903231331 75 291 3.0 11.0 0.00 0.00 0.00 63 1011.0
20260903231308 75 226 3.0 11.0 0.00 0.00 0.00 63 1011.1
20260903231229 76 248 3.0 11.0 0.00 0.00 0.00 63 1011.1
20260903231126 76 303 3.0 10.0 0.00 0.00 0.00 63 1011.1
20260903231022 76 290 3.0 10.0 0.00 0.00 0.00 63 1011.1
20260903230920 76 232 2.0 9.0 0.00 0.00 0.00 62 1011.1
20260903230821 76 277 3.0 9.0 0.00 0.00 0.00 62 1011.1
20260903230802 76 263 3.0 9.0 0.00 0.00 0.00 62 1011.1
20260903230721 76 256 3.0 9.0 0.00 0.00 0.00 63 1011.1
20260903230625 76 278 3.0 9.0 0.00 0.00 0.00 62 1011.1
20260903230516 76 253 2.0 9.0 0.00 0.00 0.00 62 1011.1
20260903230414 76 250 2.0 9.0 0.00 0.00 0.00 62 1011.1
20260903230315 76 278 3.0 9.0 0.00 0.00 0.00 61 1011.2
20260903230256 76 236 3.0 9.0 0.00 0.00 0.00 61 1011.2
20260903230215 76 283 3.0 9.0 0.00 0.00 0.00 61 1011.2
20260903230114 76 311 3.0 9.0 0.00 0.00 0.00 61 1011.2
20260903230011 77 269 2.0 9.0 0.00 0.00 0.00 62 1011.2
20260903225909 76 248 2.0 9.0 0.00 0.00 0.00 61 1011.2
20260903225809 76 250 3.0 9.0 0.00 0.00 0.00 61 1011.2
20260903225752 76 232 3.0 9.0 0.00 0.00 0.00 61 1011.2
20260903225708 76 208 3.0 12.0 0.00 0.00 0.00 62 1011.2
20260903225609 76 269 3.0 16.0 0.00 0.00 0.00 62 1011.2
20260903225508 76 243 3.0 16.0 0.00 0.00 0.00 62 1011.2
20260903225408 76 291 3.0 16.0 0.00 0.00 0.00 62 1011.2
20260903225306 76 271 3.0 16.0 0.00 0.00 0.00 62 1011.2
20260903225255 76 280 3.0 16.0 0.00 0.00 0.00 62 1011.2
20260903225203 76 255 3.0 16.0 0.00 0.00 0.00 62 1011.2
20260903225103 76 281 3.0 16.0 0.00 0.00 0.00 62 1011.2
20260903225002 76 266 3.0 16.0 0.00 0.00 0.00 62 1011.2
20260903224902 76 248 4.0 16.0 0.00 0.00 0.00 61 1011.2
20260903224806 76 235 4.0 16.0 0.00 0.00 0.00 60 1011.3
20260903224757 76 232 4.0 16.0 0.00 0.00 0.00 60 1011.3
20260903224702 76 229 3.0 16.0 0.00 0.00 0.00 61 1011.2
20260903224603 76 260 3.0 12.0 0.00 0.00 0.00 61 1011.3
20260903224503 76 250 3.0 12.0 0.00 0.00 0.00 61 1011.3
20260903224401 76 243 3.0 12.0 0.00 0.00 0.00 62 1011.3
20260903224301 76 240 4.0 12.0 0.00 0.00 0.00 62 1011.2
20260903224239 76 255 4.0 12.0 0.00 0.00 0.00 62 1011.2
20260903224201 76 276 4.0 12.0 0.00 0.00 0.00 62 1011.3
20260903224058 76 235 3.0 12.0 0.00 0.00 0.00 62 1011.3
20260903223959 76 256 3.0 12.0 0.00 0.00 0.00 62 1011.3
20260903223857 76 252 3.0 12.0 0.00 0.00 0.00 62 1011.2
20260903223756 76 266 3.0 11.0 0.00 0.00 0.00 63 1011.3
20260903223743 76 267 3.0 11.0 0.00 0.00 0.00 63 1011.3
20260903223657 76 207 3.0 11.0 0.00 0.00 0.00 63 1011.3
20260903223556 75 242 3.0 11.0 0.00 0.00 0.00 63 1011.4
20260903223456 75 211 3.0 11.0 0.00 0.00 0.00 63 1011.4
20260903223356 75 284 3.0 11.0 0.00 0.00 0.00 63 1011.4
20260903223252 75 281 4.0 11.0 0.00 0.00 0.00 63 1011.4
20260903223151 75 235 4.0 11.0 0.00 0.00 0.00 63 1011.5
20260903223050 75 273 4.0 11.0 0.00 0.00 0.00 64 1011.4
20260903223000 75 236 5.0 14.0 0.00 0.00 0.00 63 1011.5
20260903222951 75 255 5.0 11.0 0.00 0.00 0.00 63 1011.5
20260903222858 75 267 5.0 14.0 0.00 0.00 0.00 63 1011.5
20260903222849 75 266 5.0 14.0 0.00 0.00 0.00 63 1011.5
20260903222643 75 229 5.0 14.0 0.00 0.00 0.00 63 1011.5
20260903222542 75 223 5.0 14.0 0.00 0.00 0.00 63 1011.6
20260903222443 75 280 5.0 14.0 0.00 0.00 0.00 63 1011.5
20260903222342 75 243 5.0 14.0 0.00 0.00 0.00 63 1011.6
20260903222242 74 217 5.0 14.0 0.00 0.00 0.00 63 1011.6
20260903222138 74 249 4.0 14.0 0.00 0.00 0.00 63 1011.6
20260903222036 75 256 4.0 14.0 0.00 0.00 0.00 62 1011.5
20260903221937 75 243 4.0 14.0 0.00 0.00 0.00 62 1011.6
20260903221834 75 259 4.0 13.0 0.00 0.00 0.00 63 1011.6
20260903221738 75 274 4.0 13.0 0.00 0.00 0.00 63 1011.6
20260903221729 75 214 4.0 13.0 0.00 0.00 0.00 63 1011.6
20260903221629 75 240 4.0 13.0 0.00 0.00 0.00 63 1011.5
20260903221529 75 239 4.0 13.0 0.00 0.00 0.00 63 1011.5
20260903221429 75 274 4.0 13.0 0.00 0.00 0.00 63 1011.5
20260903221326 75 245 4.0 13.0 0.00 0.00 0.00 63 1011.6
20260903221237 75 243 4.0 13.0 0.00 0.00 0.00 63 1011.6
20260903221220 75 229 4.0 13.0 0.00 0.00 0.00 63 1011.6
20260903221124 75 296 4.0 13.0 0.00 0.00 0.00 63 1011.6
20260903221021 75 256 3.0 13.0 0.00 0.00 0.00 63 1011.7
20260903220920 75 231 4.0 13.0 0.00 0.00 0.00 62 1011.7
20260903220818 75 256 4.0 13.0 0.00 0.00 0.00 62 1011.7
20260903220739 75 235 3.0 13.0 0.00 0.00 0.00 62 1011.7
20260903220712 75 246 3.0 13.0 0.00 0.00 0.00 62 1011.7
20260903220613 76 262 3.0 9.0 0.00 0.00 0.00 62 1011.8
20260903220512 76 243 3.0 9.0 0.00 0.00 0.00 62 1011.8
20260903220412 76 238 3.0 9.0 0.00 0.00 0.00 61 1011.8
20260903220312 76 203 2.0 9.0 0.00 0.00 0.00 62 1011.8
20260903220235 76 253 2.0 9.0 0.00 0.00 0.00 62 1011.8
20260903220208 76 193 2.0 9.0 0.00 0.00 0.00 62 1011.8
20260903220107 76 253 3.0 9.0 0.00 0.00 0.00 62 1011.8
20260903220007 76 218 3.0 9.0 0.00 0.00 0.00 61 1011.9
20260903220000 76 271 4.0 13.0 0.00 0.00 0.00 62 1011.9
20260903215907 76 245 3.0 11.0 0.00 0.00 0.00 61 1011.9
20260903215848 76 321 4.0 13.0 0.00 0.00 0.00 61 1011.9
20260903215657 76 205 4.0 13.0 0.00 0.00 0.00 62 1011.8
20260903215558 76 240 4.0 13.0 0.00 0.00 0.00 62 1011.9
20260903215458 76 232 4.0 13.0 0.00 0.00 0.00 62 1011.9
20260903215357 76 257 4.0 13.0 0.00 0.00 0.00 62 1011.9
20260903215257 76 226 4.0 13.0 0.00 0.00 0.00 62 1011.9
20260903215232 76 200 4.0 13.0 0.00 0.00 0.00 62 1011.9
20260903215152 76 248 4.0 13.0 0.00 0.00 0.00 62 1012.0
20260903215052 76 242 4.0 13.0 0.00 0.00 0.00 61 1011.9
20260903214954 76 222 3.0 13.0 0.00 0.00 0.00 60 1012.0
20260903214852 76 239 2.0 11.0 0.00 0.00 0.00 60 1011.9
20260903214750 76 230 2.0 9.0 0.00 0.00 0.00 60 1011.9
20260903214737 76 238 2.0 8.0 0.00 0.00 0.00 60 1011.9
20260903214644 76 287 2.0 8.0 0.00 0.00 0.00 60 1011.9
20260903214544 76 207 2.0 9.0 0.00 0.00 0.00 60 1011.9
20260903214455 76 232 2.0 11.0 0.00 0.00 0.00 61 1012.0
20260903214444 76 148 2.0 11.0 0.00 0.00 0.00 60 1011.9
20260903214352 76 214 2.0 11.0 0.00 0.00 0.00 61 1011.9
20260903214343 76 243 2.0 11.0 0.00 0.00 0.00 61 1012.0
20260903214140 76 281 2.0 11.0 0.00 0.00 0.00 61 1012.0
20260903214040 76 231 2.0 11.0 0.00 0.00 0.00 61 1012.0
20260903213940 76 243 3.0 11.0 0.00 0.00 0.00 61 1012.0
20260903213838 76 234 3.0 11.0 0.00 0.00 0.00 61 1012.0
20260903213740 76 253 4.0 13.0 0.00 0.00 0.00 61 1012.1
20260903213632 76 263 4.0 13.0 0.00 0.00 0.00 61 1012.1
20260903213532 76 208 4.0 13.0 0.00 0.00 0.00 62 1012.0
20260903213432 76 307 4.0 13.0 0.00 0.00 0.00 61 1012.1
20260903213332 76 240 4.0 13.0 0.00 0.00 0.00 61 1012.0
20260903213230 75 228 5.0 13.0 0.00 0.00 0.00 61 1012.0
20260903213125 75 223 5.0 13.0 0.00 0.00 0.00 61 1012.1
20260903213024 75 243 6.0 13.0 0.00 0.00 0.00 60 1012.1
20260903212924 75 214 6.0 13.0 0.00 0.00 0.00 60 1012.1
20260903212824 76 219 6.0 13.0 0.00 0.00 0.00 60 1012.1
20260903212724 76 238 6.0 13.0 0.00 0.00 0.00 60 1012.1
20260903212618 76 218 5.0 13.0 0.00 0.00 0.00 61 1012.2
20260903212518 75 219 6.0 13.0 0.00 0.00 0.00 61 1012.2
20260903212417 75 233 6.0 13.0 0.00 0.00 0.00 61 1012.2
20260903212318 75 221 5.0 13.0 0.00 0.00 0.00 60 1012.2
20260903212220 75 222 5.0 13.0 0.00 0.00 0.00 60 1012.2
20260903212112 76 216 5.0 13.0 0.00 0.00 0.00 60 1012.2
20260903212012 76 222 4.0 13.0 0.00 0.00 0.00 60 1012.2
20260903211912 76 198 4.0 13.0 0.00 0.00 0.00 60 1012.2
20260903211812 76 250 4.0 10.0 0.00 0.00 0.00 60 1012.2
20260903211713 76 225 4.0 10.0 0.00 0.00 0.00 60 1012.2
20260903211608 76 236 4.0 12.0 0.00 0.00 0.00 59 1012.2
20260903211510 76 198 4.0 12.0 0.00 0.00 0.00 60 1012.3
20260903211408 76 239 4.0 12.0 0.00 0.00 0.00 60 1012.3
20260903211308 76 262 4.0 12.0 0.00 0.00 0.00 60 1012.3
20260903211206 76 252 4.0 12.0 0.00 0.00 0.00 60 1012.2
20260903211101 76 243 3.0 12.0 0.00 0.00 0.00 59 1012.2
20260903211000 76 243 3.0 12.0 0.00 0.00 0.00 59 1012.2
20260903210901 77 263 3.0 12.0 0.00 0.00 0.00 59 1012.2
20260903210800 77 238 2.0 12.0 0.00 0.00 0.00 59 1012.2
20260903210706 77 290 2.0 12.0 0.00 0.00 0.00 59 1012.2
20260903210700 77 230 2.0 12.0 0.00 0.00 0.00 59 1012.2
20260903210557 77 250 2.0 8.0 0.00 0.00 0.00 59 1012.2
20260903210456 77 282 2.0 8.0 0.00 0.00 0.00 59 1012.2
20260903210425 77 286 2.0 8.0 0.00 0.00 0.00 60 1012.3
20260903210356 77 250 2.0 8.0 0.00 0.00 0.00 59 1012.2
20260903210311 77 131 2.0 7.0 0.00 0.00 0.00 59 1012.3
20260903210154 77 216 2.0 8.0 0.00 0.00 0.00 60 1012.3
20260903210049 77 256 2.0 8.0 0.00 0.00 0.00 60 1012.3
20260903205949 77 274 2.0 10.0 0.00 0.00 0.00 60 1012.3
20260903205848 77 228 2.0 10.0 0.00 0.00 0.00 60 1012.3
20260903205748 77 350 2.0 10.0 0.00 0.00 0.00 60 1012.3
20260903205701 77 245 3.0 10.0 0.00 0.00 0.00 60 1012.4
20260903205647 77 245 3.0 10.0 0.00 0.00 0.00 59 1012.4
20260903205544 77 270 3.0 10.0 0.00 0.00 0.00 59 1012.3
20260903205442 77 214 3.0 10.0 0.00 0.00 0.00 60 1012.3
20260903205341 77 246 3.0 10.0 0.00 0.00 0.00 59 1012.4
20260903205242 77 239 3.0 10.0 0.00 0.00 0.00 59 1012.3
20260903205201 77 245 3.0 10.0 0.00 0.00 0.00 59 1012.3
20260903205141 76 262 3.0 10.0 0.00 0.00 0.00 60 1012.3
20260903205040 76 158 3.0 10.0 0.00 0.00 0.00 60 1012.3
20260903204939 76 226 2.0 10.0 0.00 0.00 0.00 60 1012.3
20260903204840 76 298 3.0 10.0 0.00 0.00 0.00 60 1012.4
20260903204738 76 294 3.0 10.0 0.00 0.00 0.00 59 1012.4
20260903204701 76 294 3.0 10.0 0.00 0.00 0.00 59 1012.4
20260903204636 76 295 3.0 10.0 0.00 0.00 0.00 60 1012.4
20260903204530 76 263 3.0 10.0 0.00 0.00 0.00 60 1012.4
20260903204429 77 238 3.0 12.0 0.00 0.00 0.00 59 1012.4
20260903204330 77 235 3.0 12.0 0.00 0.00 0.00 59 1012.4
20260903204230 77 233 3.0 12.0 0.00 0.00 0.00 59 1012.4
20260903204201 77 291 3.0 12.0 0.00 0.00 0.00 59 1012.4
20260903204130 77 276 3.0 12.0 0.00 0.00 0.00 59 1012.4
20260903204026 77 248 3.0 12.0 0.00 0.00 0.00 58 1012.4
20260903203926 77 216 2.0 12.0 0.00 0.00 0.00 58 1012.5
20260903203825 77 239 2.0 12.0 0.00 0.00 0.00 58 1012.5
20260903203729 77 271 2.0 13.0 0.00 0.00 0.00 58 1012.5
20260903203659 77 243 3.0 13.0 0.00 0.00 0.00 58 1012.5
20260903203625 77 226 3.0 13.0 0.00 0.00 0.00 58 1012.5
20260903203520 77 291 3.0 13.0 0.00 0.00 0.00 58 1012.5
20260903203420 77 228 2.0 13.0 0.00 0.00 0.00 58 1012.5
20260903203320 77 212 2.0 13.0 0.00 0.00 0.00 59 1012.5
20260903203220 77 233 2.0 13.0 0.00 0.00 0.00 59 1012.5
20260903203158 77 310 3.0 13.0 0.00 0.00 0.00 59 1012.5
20260903203117 77 284 3.0 13.0 0.00 0.00 0.00 59 1012.5
20260903203013 77 164 3.0 13.0 0.00 0.00 0.00 59 1012.5
20260903202912 77 267 2.0 13.0 0.00 0.00 0.00 59 1012.5
20260903202813 77 248 2.0 13.0 0.00 0.00 0.00 58 1012.5
20260903202712 77 173 2.0 12.0 0.00 0.00 0.00 58 1012.5
20260903202656 77 208 2.0 11.0 0.00 0.00 0.00 58 1012.5
20260903202612 77 156 1.0 8.0 0.00 0.00 0.00 58 1012.6
20260903202508 77 218 2.0 8.0 0.00 0.00 0.00 59 1012.6
20260903202406 77 243 2.0 8.0 0.00 0.00 0.00 59 1012.5
20260903202306 76 236 2.0 9.0 0.00 0.00 0.00 59 1012.5
20260903202205 76 243 2.0 9.0 0.00 0.00 0.00 59 1012.5
20260903202155 76 252 2.0 9.0 0.00 0.00 0.00 60 1012.5
20260903202103 76 255 3.0 10.0 0.00 0.00 0.00 60 1012.5
20260903202000 76 255 3.0 13.0 0.00 0.00 0.00 60 1012.5
20260903201857 76 255 4.0 13.0 0.00 0.00 0.00 61 1012.6
20260903201758 75 287 5.0 13.0 0.00 0.00 0.00 61 1012.6
20260903201659 75 229 5.0 15.0 0.00 0.00 0.00 61 1012.6
20260903201555 75 217 6.0 15.0 0.00 0.00 0.00 60 1012.6
20260903201450 75 193 6.0 15.0 0.00 0.00 0.00 60 1012.6
20260903201350 75 245 5.0 15.0 0.00 0.00 0.00 59 1012.6
20260903201250 75 260 5.0 15.0 0.00 0.00 0.00 60 1012.6
20260903201156 75 208 5.0 15.0 0.00 0.00 0.00 59 1012.7
20260903201151 75 200 5.0 15.0 0.00 0.00 0.00 59 1012.7
20260903201048 75 270 5.0 15.0 0.00 0.00 0.00 59 1012.6
20260903200942 75 240 4.0 15.0 0.00 0.00 0.00 59 1012.7
20260903200842 76 239 4.0 15.0 0.00 0.00 0.00 58 1012.7
20260903200742 76 208 3.0 13.0 0.00 0.00 0.00 58 1012.7
20260903200653 76 277 3.0 10.0 0.00 0.00 0.00 59 1012.7
20260903200642 76 281 3.0 10.0 0.00 0.00 0.00 59 1012.7
20260903200542 76 243 3.0 10.0 0.00 0.00 0.00 59 1012.7
20260903200442 76 236 3.0 10.0 0.00 0.00 0.00 60 1012.7
20260903200342 76 260 4.0 10.0 0.00 0.00 0.00 60 1012.7
20260903200242 75 225 4.0 11.0 0.00 0.00 0.00 60 1012.7
20260903200151 75 187 4.0 11.0 0.00 0.00 0.00 60 1012.7
20260903200143 75 246 4.0 11.0 0.00 0.00 0.00 60 1012.7
20260903200042 75 235 4.0 11.0 0.00 0.00 0.00 60 1012.8
20260903195942 75 257 4.0 11.0 0.00 0.00 0.00 61 1012.8
20260903195840 75 246 4.0 11.0 0.00 0.00 0.00 61 1012.8
20260903195740 75 211 4.0 12.0 0.00 0.00 0.00 61 1012.8
20260903195650 75 236 4.0 12.0 0.00 0.00 0.00 61 1012.8
20260903195641 75 241 4.0 12.0 0.00 0.00 0.00 61 1012.8
20260903195538 75 253 4.0 12.0 0.00 0.00 0.00 60 1012.8
20260903195438 76 228 4.0 12.0 0.00 0.00 0.00 60 1012.9
20260903195336 76 252 3.0 12.0 0.00 0.00 0.00 61 1012.9
20260903195236 76 245 3.0 12.0 0.00 0.00 0.00 61 1012.9
20260903195151 75 245 3.0 12.0 0.00 0.00 0.00 61 1012.9
20260903195137 75 238 3.0 12.0 0.00 0.00 0.00 61 1012.9
20260903195036 76 201 3.0 12.0 0.00 0.00 0.00 60 1013.0
20260903194935 76 233 3.0 12.0 0.00 0.00 0.00 60 1013.0
20260903194836 76 219 2.0 12.0 0.00 0.00 0.00 60 1013.0
20260903194734 76 245 2.0 7.0 0.00 0.00 0.00 60 1012.9
20260903194651 76 235 2.0 7.0 0.00 0.00 0.00 60 1012.9
20260903194635 76 226 2.0 7.0 0.00 0.00 0.00 60 1012.9
20260903194533 76 298 2.0 7.0 0.00 0.00 0.00 61 1013.0
20260903194432 76 298 2.0 7.0 0.00 0.00 0.00 61 1012.9
20260903194330 76 307 2.0 7.0 0.00 0.00 0.00 60 1012.9
20260903194228 76 225 2.0 7.0 0.00 0.00 0.00 60 1012.9
20260903194144 76 256 2.0 7.0 0.00 0.00 0.00 60 1012.9
20260903194129 76 284 2.0 7.0 0.00 0.00 0.00 60 1012.9
20260903194028 76 238 2.0 7.0 0.00 0.00 0.00 61 1013.0
20260903193926 76 248 2.0 8.0 0.00 0.00 0.00 61 1013.0
20260903193823 76 248 3.0 9.0 0.00 0.00 0.00 61 1013.0
20260903193727 76 245 3.0 9.0 0.00 0.00 0.00 60 1013.0
20260903193625 76 245 3.0 9.0 0.00 0.00 0.00 62 1013.0
20260903193519 76 245 3.0 9.0 0.00 0.00 0.00 61 1013.0
20260903193420 76 198 3.0 9.0 0.00 0.00 0.00 60 1013.1
20260903193317 76 226 4.0 9.0 0.00 0.00 0.00 60 1013.1
20260903193212 76 235 4.0 9.0 0.00 0.00 0.00 60 1013.1
20260903193132 76 238 4.0 9.0 0.00 0.00 0.00 60 1013.1
20260903193112 76 271 5.0 11.0 0.00 0.00 0.00 60 1013.1
20260903193011 76 263 5.0 14.0 0.00 0.00 0.00 60 1013.1
20260903192912 76 245 5.0 14.0 0.00 0.00 0.00 59 1013.1
20260903192812 76 246 4.0 14.0 0.00 0.00 0.00 59 1013.2
20260903192706 76 253 4.0 14.0 0.00 0.00 0.00 60 1013.2
20260903192626 76 256 4.0 14.0 0.00 0.00 0.00 60 1013.2
20260903192606 76 300 4.0 14.0 0.00 0.00 0.00 60 1013.1
20260903192506 76 180 4.0 14.0 0.00 0.00 0.00 59 1013.2
20260903192406 76 226 3.0 14.0 0.00 0.00 0.00 58 1013.1
20260903192306 77 235 3.0 14.0 0.00 0.00 0.00 57 1013.2
20260903192200 77 249 3.0 14.0 0.00 0.00 0.00 56 1013.2
20260903192121 78 238 3.0 14.0 0.00 0.00 0.00 56 1013.2
20260903192100 78 243 2.0 12.0 0.00 0.00 0.00 56 1013.2
20260903192000 78 145 2.0 10.0 0.00 0.00 0.00 56 1013.2
20260903191900 78 218 2.0 10.0 0.00 0.00 0.00 57 1013.2
20260903191759 78 228 3.0 10.0 0.00 0.00 0.00 57 1013.2
20260903191701 78 228 3.0 10.0 0.00 0.00 0.00 58 1013.2
20260903191615 78 225 3.0 10.0 0.00 0.00 0.00 58 1013.3
20260903191557 77 225 3.0 10.0 0.00 0.00 0.00 58 1013.3
20260903191455 77 224 3.0 10.0 0.00 0.00 0.00 58 1013.2
20260903191356 77 225 3.0 10.0 0.00 0.00 0.00 58 1013.3
20260903191332 77 212 3.0 10.0 0.00 0.00 0.00 58 1013.3
20260903191253 77 300 3.0 10.0 0.00 0.00 0.00 58 1013.3
20260903191219 77 246 3.0 10.0 0.00 0.00 0.00 58 1013.3
20260903191048 77 187 3.0 10.0 0.00 0.00 0.00 59 1013.3
20260903190947 77 231 2.0 10.0 0.00 0.00 0.00 58 1013.3
20260903190848 77 243 2.0 8.0 0.00 0.00 0.00 59 1013.3
20260903190747 76 256 2.0 8.0 0.00 0.00 0.00 59 1013.3
20260903190644 76 243 2.0 8.0 0.00 0.00 0.00 60 1013.3
20260903190602 76 221 2.0 8.0 0.00 0.00 0.00 60 1013.4
20260903190544 76 141 2.0 8.0 0.00 0.00 0.00 60 1013.4
20260903190444 76 236 3.0 9.0 0.00 0.00 0.00 60 1013.4
20260903190343 76 248 3.0 9.0 0.00 0.00 0.00 61 1013.4
20260903190241 76 248 2.0 9.0 0.00 0.00 0.00 61 1013.4
20260903190138 75 278 3.0 9.0 0.00 0.00 0.00 62 1013.4
20260903190109 75 50 2.0 9.0 0.00 0.00 0.00 62 1013.4
20260903190036 75 68 2.0 9.0 0.00 0.00 0.00 61 1013.4
20260903185937 75 246 2.0 9.0 0.00 0.00 0.00 61 1013.4
20260903185836 75 203 2.0 9.0 0.00 0.00 0.00 62 1013.4
20260903185735 75 142 2.0 9.0 0.00 0.00 0.00 61 1013.5
20260903185633 75 246 2.0 9.0 0.00 0.00 0.00 59 1013.5
20260903185550 76 246 2.0 9.0 0.00 0.00 0.00 59 1013.5
20260903185530 76 221 2.0 9.0 0.00 0.00 0.00 60 1013.5
20260903185430 76 248 1.0 7.0 0.00 0.00 0.00 61 1013.4
20260903185329 76 214 1.0 7.0 0.00 0.00 0.00 62 1013.5
20260903185306 76 256 1.0 7.0 0.00 0.00 0.00 62 1013.5
20260903185229 76 164 1.0 7.0 0.00 0.00 0.00 61 1013.5
20260903185156 76 172 1.0 7.0 0.00 0.00 0.00 62 1013.5
20260903185027 76 342 1.0 7.0 0.00 0.00 0.00 62 1013.5
20260903184928 76 342 1.0 7.0 0.00 0.00 0.00 62 1013.5
20260903184826 75 246 1.0 7.0 0.00 0.00 0.00 62 1013.5
20260903184726 75 253 1.0 7.0 0.00 0.00 0.00 62 1013.5
20260903184624 76 222 1.0 7.0 0.00 0.00 0.00 62 1013.6
20260903184538 76 242 1.0 7.0 0.00 0.00 0.00 62 1013.6
20260903184522 76 233 1.0 4.0 0.00 0.00 0.00 63 1013.6
20260903184422 75 228 1.0 4.0 0.00 0.00 0.00 62 1013.6
20260903184320 75 245 1.0 3.0 0.00 0.00 0.00 63 1013.6
20260903184218 75 204 1.0 2.0 0.00 0.00 0.00 63 1013.7
20260903184112 75 203 1.0 8.0 0.00 0.00 0.00 63 1013.6
20260903184033 75 238 1.0 8.0 0.00 0.00 0.00 63 1013.6
20260903184012 75 238 1.0 8.0 0.00 0.00 0.00 64 1013.6
20260903183912 75 238 1.0 8.0 0.00 0.00 0.00 63 1013.7
20260903183812 75 238 1.0 8.0 0.00 0.00 0.00 64 1013.7
20260903183711 75 236 2.0 9.0 0.00 0.00 0.00 64 1013.7
20260903183608 75 226 2.0 9.0 0.00 0.00 0.00 64 1013.7
20260903183526 75 256 2.0 9.0 0.00 0.00 0.00 64 1013.7
20260903183506 75 256 3.0 9.0 0.00 0.00 0.00 64 1013.7
20260903183405 75 256 3.0 9.0 0.00 0.00 0.00 64 1013.7
20260903183306 75 256 3.0 9.0 0.00 0.00 0.00 65 1013.7
20260903183205 74 255 3.0 9.0 0.00 0.00 0.00 64 1013.7
20260903183101 74 221 3.0 9.0 0.00 0.00 0.00 64 1013.7
20260903183021 74 192 3.0 9.0 0.00 0.00 0.00 64 1013.7
20260903183000 74 182 4.0 9.0 0.00 0.00 0.00 65 1013.7
20260903182900 74 250 4.0 9.0 0.00 0.00 0.00 64 1013.8
20260903182800 74 141 4.0 9.0 0.00 0.00 0.00 65 1013.7
20260903182700 74 163 4.0 8.0 0.00 0.00 0.00 65 1013.8
20260903182553 74 226 4.0 8.0 0.00 0.00 0.00 64 1013.8
20260903182514 74 212 4.0 8.0 0.00 0.00 0.00 65 1013.7
20260903182453 73 166 4.0 8.0 0.00 0.00 0.00 65 1013.7
20260903182354 73 230 4.0 8.0 0.00 0.00 0.00 65 1013.7
20260903182254 73 203 4.0 9.0 0.00 0.00 0.00 66 1013.7
20260903182153 73 211 4.0 9.0 0.00 0.00 0.00 67 1013.7
20260903182052 73 160 4.0 9.0 0.00 0.00 0.00 67 1013.8
20260903182008 72 139 4.0 9.0 0.00 0.00 0.00 67 1013.8
20260903181952 72 216 4.0 9.0 0.00 0.00 0.00 67 1013.8
20260903181850 72 198 4.0 9.0 0.00 0.00 0.00 68 1013.8
20260903181749 72 250 4.0 9.0 0.00 0.00 0.00 68 1013.9
20260903181648 72 240 4.0 9.0 0.00 0.00 0.00 67 1013.8
20260903181544 72 243 4.0 9.0 0.00 0.00 0.00 67 1013.9
20260903181503 72 232 4.0 9.0 0.00 0.00 0.00 67 1013.9
20260903181444 72 224 4.0 9.0 0.00 0.00 0.00 67 1013.9
20260903181345 72 242 4.0 10.0 0.00 0.00 0.00 66 1013.9
20260903181244 72 248 4.0 10.0 0.00 0.00 0.00 67 1013.9
20260903181143 72 235 4.0 10.0 0.00 0.00 0.00 67 1013.9
20260903181037 72 243 4.0 10.0 0.00 0.00 0.00 67 1013.9
20260903180956 72 231 4.0 10.0 0.00 0.00 0.00 68 1013.9
20260903180937 72 238 4.0 10.0 0.00 0.00 0.00 69 1013.9
20260903180836 72 230 4.0 10.0 0.00 0.00 0.00 68 1013.9
20260903180736 72 238 4.0 10.0 0.00 0.00 0.00 68 1013.9
20260903180636 72 204 4.0 10.0 0.00 0.00 0.00 67 1013.9
20260903180530 72 222 3.0 10.0 0.00 0.00 0.00 67 1013.9
20260903180450 72 217 3.0 10.0 0.00 0.00 0.00 66 1013.9
20260903180430 73 259 3.0 10.0 0.00 0.00 0.00 66 1013.9
20260903180331 73 259 2.0 8.0 0.00 0.00 0.00 66 1013.9
20260903180230 73 231 2.0 8.0 0.00 0.00 0.00 68 1013.9
20260903180131 73 146 2.0 6.0 0.00 0.00 0.00 68 1013.9
20260903180026 72 215 3.0 8.0 0.00 0.00 0.00 69 1013.9
20260903175944 72 238 3.0 8.0 0.00 0.00 0.00 68 1013.9
20260903175925 72 212 3.0 8.0 0.00 0.00 0.00 68 1013.9
20260903175824 72 235 3.0 8.0 0.00 0.00 0.00 68 1013.9
20260903175724 72 224 3.0 8.0 0.00 0.00 0.00 69 1013.9
20260903175625 72 169 2.0 8.0 0.00 0.00 0.00 70 1013.9
20260903175520 71 266 3.0 8.0 0.00 0.00 0.00 69 1013.9
20260903175445 71 267 3.0 8.0 0.00 0.00 0.00 68 1014.0
20260903175420 71 231 3.0 8.0 0.00 0.00 0.00 68 1014.0
20260903175319 72 137 3.0 8.0 0.00 0.00 0.00 67 1014.0
20260903175220 72 233 3.0 8.0 0.00 0.00 0.00 68 1014.0
20260903175122 72 183 3.0 8.0 0.00 0.00 0.00 67 1014.0
20260903175019 72 273 3.0 8.0 0.00 0.00 0.00 69 1014.0
20260903174945 72 246 3.0 8.0 0.00 0.00 0.00 69 1014.0
20260903174920 72 241 3.0 8.0 0.00 0.00 0.00 69 1014.0
20260903174818 71 215 2.0 8.0 0.00 0.00 0.00 70 1014.0
20260903174718 71 217 3.0 8.0 0.00 0.00 0.00 69 1014.0
20260903174616 71 218 3.0 8.0 0.00 0.00 0.00 68 1014.0
20260903174506 71 232 3.0 8.0 0.00 0.00 0.00 69 1014.0
20260903174445 71 177 3.0 8.0 0.00 0.00 0.00 69 1014.0
20260903174404 71 225 3.0 8.0 0.00 0.00 0.00 69 1014.1
20260903174305 71 238 2.0 8.0 0.00 0.00 0.00 69 1014.1
20260903174204 71 150 2.0 6.0 0.00 0.00 0.00 69 1014.1
20260903174102 71 145 2.0 6.0 0.00 0.00 0.00 69 1014.1
20260903174000 71 203 2.0 6.0 0.00 0.00 0.00 69 1014.1
20260903173945 71 207 2.0 6.0 0.00 0.00 0.00 69 1014.1
20260903173858 71 201 2.0 6.0 0.00 0.00 0.00 70 1014.1
20260903173758 71 164 2.0 6.0 0.00 0.00 0.00 72 1014.1
20260903173658 70 134 2.0 6.0 0.00 0.00 0.00 71 1014.1
20260903173555 70 180 2.0 6.0 0.00 0.00 0.00 72 1014.1
20260903173456 70 161 2.0 7.0 0.00 0.00 0.00 72 1014.1
20260903173445 70 191 2.0 7.0 0.00 0.00 0.00 72 1014.1
20260903173353 70 191 2.0 7.0 0.00 0.00 0.00 72 1014.1
20260903173254 69 219 2.0 7.0 0.00 0.00 0.00 73 1014.1
20260903173153 69 219 2.0 7.0 0.00 0.00 0.00 73 1014.0
20260903173049 69 219 2.0 7.0 0.00 0.00 0.00 74 1014.1
20260903172947 69 226 3.0 7.0 0.00 0.00 0.00 73 1014.1
20260903172843 69 173 3.0 9.0 0.00 0.00 0.00 73 1014.1
20260903172744 69 129 3.0 9.0 0.00 0.00 0.00 74 1014.1
20260903172645 68 233 3.0 9.0 0.00 0.00 0.00 74 1014.1
20260903172543 68 198 3.0 9.0 0.00 0.00 0.00 75 1014.1
20260903172440 68 207 3.0 9.0 0.00 0.00 0.00 75 1014.1
20260903172341 68 203 3.0 9.0 0.00 0.00 0.00 75 1014.2
20260903172239 68 242 4.0 9.0 0.00 0.00 0.00 74 1014.2
20260903172212 68 253 3.0 9.0 0.00 0.00 0.00 74 1014.2
20260903172139 68 233 4.0 9.0 0.00 0.00 0.00 74 1014.2
20260903172104 68 243 4.0 9.0 0.00 0.00 0.00 74 1014.2
20260903171932 68 212 3.0 8.0 0.00 0.00 0.00 74 1014.2
20260903171832 68 284 3.0 8.0 0.00 0.00 0.00 74 1014.3
20260903171732 68 233 3.0 8.0 0.00 0.00 0.00 74 1014.2
20260903171712 68 238 3.0 8.0 0.00 0.00 0.00 74 1014.3
20260903171634 68 210 3.0 8.0 0.00 0.00 0.00 75 1014.2
20260903171552 68 210 3.0 8.0 0.00 0.00 0.00 74 1014.3
20260903171426 68 200 3.0 8.0 0.00 0.00 0.00 74 1014.3
20260903171325 68 257 3.0 8.0 0.00 0.00 0.00 74 1014.2
20260903171226 68 245 3.0 6.0 0.00 0.00 0.00 75 1014.3
20260903171127 68 219 3.0 6.0 0.00 0.00 0.00 75 1014.3
20260903171025 68 236 3.0 6.0 0.00 0.00 0.00 75 1014.3
20260903170939 68 170 3.0 6.0 0.00 0.00 0.00 75 1014.3
20260903170917 68 136 3.0 7.0 0.00 0.00 0.00 75 1014.3
20260903170818 67 217 3.0 7.0 0.00 0.00 0.00 75 1014.3
20260903170718 67 154 3.0 7.0 0.00 0.00 0.00 75 1014.3
20260903170622 67 231 3.0 7.0 0.00 0.00 0.00 75 1014.3
20260903170517 67 250 3.0 7.0 0.00 0.00 0.00 75 1014.3
20260903170439 67 235 3.0 7.0 0.00 0.00 0.00 75 1014.3
20260903170416 67 259 3.0 7.0 0.00 0.00 0.00 75 1014.3
20260903170315 67 243 3.0 7.0 0.00 0.00 0.00 75 1014.3
20260903170216 67 284 3.0 7.0 0.00 0.00 0.00 76 1014.3
20260903170119 67 143 3.0 7.0 0.00 0.00 0.00 75 1014.3
20260903170016 67 236 3.0 7.0 0.00 0.00 0.00 75 1014.3
20260903165939 67 226 3.0 7.0 0.00 0.00 0.00 75 1014.3
20260903165916 67 256 3.0 7.0 0.00 0.00 0.00 75 1014.3
20260903165816 67 238 2.0 7.0 0.00 0.00 0.00 75 1014.3
20260903165716 68 226 2.0 6.0 0.00 0.00 0.00 74 1014.3
20260903165621 68 222 2.0 6.0 0.00 0.00 0.00 75 1014.3
20260903165516 68 214 2.0 6.0 0.00 0.00 0.00 75 1014.3
20260903165416 68 256 2.0 6.0 0.00 0.00 0.00 75 1014.3
20260903165312 68 256 3.0 6.0 0.00 0.00 0.00 75 1014.4
20260903165213 68 233 2.0 8.0 0.00 0.00 0.00 75 1014.3
20260903165112 68 232 2.0 8.0 0.00 0.00 0.00 75 1014.4
20260903165012 68 232 2.0 8.0 0.00 0.00 0.00 75 1014.4
20260903164937 68 239 2.0 8.0 0.00 0.00 0.00 75 1014.4
20260903164912 68 217 2.0 8.0 0.00 0.00 0.00 76 1014.3
20260903164811 67 198 2.0 8.0 0.00 0.00 0.00 76 1014.4
20260903164706 67 198 2.0 8.0 0.00 0.00 0.00 75 1014.4
20260903164606 67 223 2.0 8.0 0.00 0.00 0.00 75 1014.4
20260903164506 67 228 2.0 8.0 0.00 0.00 0.00 75 1014.4
20260903164438 67 212 2.0 8.0 0.00 0.00 0.00 75 1014.4
20260903164406 67 216 2.0 8.0 0.00 0.00 0.00 74 1014.4
20260903164304 68 249 1.0 8.0 0.00 0.00 0.00 74 1014.4
20260903164204 68 243 1.0 5.0 0.00 0.00 0.00 75 1014.3
20260903164102 68 218 1.0 5.0 0.00 0.00 0.00 75 1014.3
20260903163936 68 225 2.0 5.0 0.00 0.00 0.00 76 1014.3
20260903163901 67 225 2.0 5.0 0.00 0.00 0.00 75 1014.3
20260903163757 67 225 2.0 5.0 0.00 0.00 0.00 76 1014.4
20260903163658 67 233 2.0 5.0 0.00 0.00 0.00 76 1014.4
20260903163555 67 242 2.0 5.0 0.00 0.00 0.00 75 1014.4
20260903163456 67 237 2.0 5.0 0.00 0.00 0.00 75 1014.4
20260903163430 67 235 2.0 5.0 0.00 0.00 0.00 75 1014.4
20260903163354 67 231 2.0 5.0 0.00 0.00 0.00 75 1014.4
20260903163251 68 225 2.0 5.0 0.00 0.00 0.00 74 1014.4
20260903163146 68 210 2.0 5.0 0.00 0.00 0.00 74 1014.4
20260903163046 68 233 2.0 5.0 0.00 0.00 0.00 75 1014.4
20260903162946 68 138 1.0 5.0 0.00 0.00 0.00 75 1014.4
20260903162924 68 231 1.0 5.0 0.00 0.00 0.00 75 1014.4
20260903162846 68 166 1.0 5.0 0.00 0.00 0.00 75 1014.4
20260903162746 68 170 1.0 4.0 0.00 0.00 0.00 75 1014.4
20260903162643 68 236 1.0 5.0 0.00 0.00 0.00 74 1014.4
20260903162542 68 235 1.0 5.0 0.00 0.00 0.00 75 1014.4
20260903162442 68 139 1.0 5.0 0.00 0.00 0.00 75 1014.4
20260903162418 68 150 1.0 5.0 0.00 0.00 0.00 75 1014.4
20260903162343 68 246 2.0 5.0 0.00 0.00 0.00 76 1014.5
20260903162240 68 233 2.0 5.0 0.00 0.00 0.00 75 1014.5
20260903162134 68 174 2.0 5.0 0.00 0.00 0.00 76 1014.5
20260903162034 68 149 2.0 6.0 0.00 0.00 0.00 76 1014.5
20260903161934 68 146 2.0 6.0 0.00 0.00 0.00 75 1014.5
20260903161912 68 219 3.0 6.0 0.00 0.00 0.00 74 1014.5
20260903161833 68 219 3.0 6.0 0.00 0.00 0.00 74 1014.5
20260903161734 68 172 2.0 6.0 0.00 0.00 0.00 75 1014.5
20260903161630 68 218 2.0 6.0 0.00 0.00 0.00 75 1014.5
20260903161528 68 226 2.0 6.0 0.00 0.00 0.00 76 1014.5
20260903161427 68 134 2.0 6.0 0.00 0.00 0.00 75 1014.5
20260903161406 68 134 3.0 6.0 0.00 0.00 0.00 75 1014.5
20260903161328 68 226 3.0 6.0 0.00 0.00 0.00 75 1014.5
20260903161228 68 129 3.0 6.0 0.00 0.00 0.00 74 1014.5
20260903161124 68 117 2.0 6.0 0.00 0.00 0.00 75 1014.6
20260903161022 68 148 2.0 6.0 0.00 0.00 0.00 75 1014.6
20260903160922 68 200 2.0 6.0 0.00 0.00 0.00 76 1014.6
20260903160900 68 127 2.0 6.0 0.00 0.00 0.00 77 1014.6
20260903160822 67 158 2.0 6.0 0.00 0.00 0.00 77 1014.6
20260903160722 67 141 2.0 6.0 0.00 0.00 0.00 78 1014.6
20260903160622 67 150 3.0 6.0 0.00 0.00 0.00 77 1014.6
20260903160517 67 143 3.0 6.0 0.00 0.00 0.00 77 1014.6
20260903160416 67 136 3.0 6.0 0.00 0.00 0.00 77 1014.6
20260903160354 67 121 3.0 6.0 0.00 0.00 0.00 77 1014.6
20260903160316 66 108 3.0 6.0 0.00 0.00 0.00 77 1014.6
20260903160216 66 154 3.0 6.0 0.00 0.00 0.00 78 1014.6
20260903160112 66 204 2.0 6.0 0.00 0.00 0.00 78 1014.6
20260903160012 66 184 2.0 6.0 0.00 0.00 0.00 78 1014.6
20260903155912 66 217 3.0 6.0 0.00 0.00 0.00 78 1014.6
20260903155850 66 215 3.0 6.0 0.00 0.00 0.00 78 1014.6
20260903155812 66 241 3.0 6.0 0.00 0.00 0.00 78 1014.6
20260903155714 66 229 3.0 6.0 0.00 0.00 0.00 78 1014.6
20260903155604 66 201 3.0 6.0 0.00 0.00 0.00 78 1014.6
20260903155504 66 118 2.0 6.0 0.00 0.00 0.00 78 1014.6
20260903155404 66 146 2.0 6.0 0.00 0.00 0.00 78 1014.6
20260903155343 66 142 2.0 6.0 0.00 0.00 0.00 79 1014.6
20260903155306 66 137 2.0 6.0 0.00 0.00 0.00 79 1014.6
20260903155204 66 129 3.0 6.0 0.00 0.00 0.00 79 1014.6
20260903155105 66 110 3.0 6.0 0.00 0.00 0.00 79 1014.6
20260903155056 66 141 2.0 6.0 0.00 0.00 0.00 78 1014.7
20260903155002 66 102 3.0 6.0 0.00 0.00 0.00 79 1014.6
20260903154947 66 141 2.0 6.0 0.00 0.00 0.00 78 1014.7
20260903154802 66 150 2.0 6.0 0.00 0.00 0.00 79 1014.7
20260903154658 66 159 2.0 5.0 0.00 0.00 0.00 79 1014.7
20260903154554 66 148 2.0 5.0 0.00 0.00 0.00 80 1014.7
20260903154453 65 122 2.0 5.0 0.00 0.00 0.00 80 1014.7
20260903154352 65 136 2.0 5.0 0.00 0.00 0.00 80 1014.7
20260903154330 65 117 2.0 5.0 0.00 0.00 0.00 80 1014.7
20260903154252 65 111 2.0 5.0 0.00 0.00 0.00 80 1014.7
20260903154152 65 124 2.0 4.0 0.00 0.00 0.00 81 1014.7
20260903154049 65 138 2.0 5.0 0.00 0.00 0.00 81 1014.7
20260903153948 65 146 2.0 5.0 0.00 0.00 0.00 81 1014.7
20260903153848 65 133 2.0 5.0 0.00 0.00 0.00 81 1014.7
20260903153824 64 141 2.0 5.0 0.00 0.00 0.00 81 1014.7
20260903153748 64 231 2.0 5.0 0.00 0.00 0.00 82 1014.8
20260903153647 64 146 3.0 5.0 0.00 0.00 0.00 82 1014.7
20260903153542 64 138 2.0 5.0 0.00 0.00 0.00 83 1014.8
20260903153440 64 154 3.0 5.0 0.00 0.00 0.00 83 1014.8
20260903153340 64 139 3.0 7.0 0.00 0.00 0.00 83 1014.7
20260903153318 64 113 3.0 7.0 0.00 0.00 0.00 83 1014.7
20260903153239 64 120 3.0 7.0 0.00 0.00 0.00 83 1014.8
20260903153140 63 143 3.0 7.0 0.00 0.00 0.00 84 1014.8
20260903153033 63 130 3.0 7.0 0.00 0.00 0.00 85 1014.7
20260903152935 63 144 3.0 7.0 0.00 0.00 0.00 84 1014.8
20260903152834 63 107 3.0 7.0 0.00 0.00 0.00 84 1014.8
20260903152811 62 101 3.0 7.0 0.00 0.00 0.00 84 1014.9
20260903152734 62 92 3.0 7.0 0.00 0.00 0.00 85 1014.9
20260903152634 62 136 3.0 7.0 0.00 0.00 0.00 85 1014.9
20260903152530 62 110 3.0 7.0 0.00 0.00 0.00 85 1014.8
20260903152429 62 105 3.0 7.0 0.00 0.00 0.00 85 1014.8
20260903152330 62 119 3.0 7.0 0.00 0.00 0.00 85 1014.8
20260903152313 62 167 3.0 7.0 0.00 0.00 0.00 85 1014.8
20260903152258 61 100 3.0 6.0 0.00 0.00 0.00 86 1014.8
20260903152230 62 145 3.0 7.0 0.00 0.00 0.00 86 1014.8
20260903152145 62 150 3.0 7.0 0.00 0.00 0.00 86 1014.8
20260903152022 62 101 3.0 7.0 0.00 0.00 0.00 86 1014.8
20260903151932 62 93 3.0 6.0 0.00 0.00 0.00 86 1014.7
20260903151923 61 136 3.0 6.0 0.00 0.00 0.00 86 1014.8
20260903151720 61 113 3.0 6.0 0.00 0.00 0.00 87 1014.8
20260903151620 61 94 3.0 6.0 0.00 0.00 0.00 87 1014.9
20260903151514 61 154 3.0 6.0 0.00 0.00 0.00 87 1014.9
20260903151414 61 93 3.0 6.0 0.00 0.00 0.00 88 1014.9
20260903151320 60 105 3.0 6.0 0.00 0.00 0.00 88 1014.9
20260903151313 60 103 3.0 6.0 0.00 0.00 0.00 88 1014.9
20260903151215 60 121 3.0 6.0 0.00 0.00 0.00 88 1014.9
20260903151114 60 104 3.0 6.0 0.00 0.00 0.00 88 1014.9
20260903151006 60 100 2.0 6.0 0.00 0.00 0.00 88 1014.9
20260903150905 60 99 2.0 6.0 0.00 0.00 0.00 88 1014.9
20260903150812 60 108 2.0 5.0 0.00 0.00 0.00 88 1014.9
20260903150806 60 101 2.0 5.0 0.00 0.00 0.00 88 1014.9
20260903150706 60 96 1.0 5.0 0.00 0.00 0.00 88 1014.9
20260903150605 60 88 1.0 5.0 0.00 0.00 0.00 88 1014.9
20260903150503 60 94 1.0 5.0 0.00 0.00 0.00 89 1014.9
20260903150400 60 98 1.0 5.0 0.00 0.00 0.00 89 1014.9
20260903150314 59 54 1.0 5.0 0.00 0.00 0.00 90 1014.9
20260903150300 59 84 1.0 5.0 0.00 0.00 0.00 90 1014.9
20260903150201 59 104 1.0 3.0 0.00 0.00 0.00 90 1014.9
20260903150057 59 131 1.0 3.0 0.00 0.00 0.00 91 1014.9
20260903150032 58 117 1.0 3.0 0.00 0.00 0.00 90 1014.9
20260903145954 59 166 1.0 3.0 0.00 0.00 0.00 90 1014.9
20260903145923 59 166 1.0 3.0 0.00 0.00 0.00 90 1014.9
20260903145752 58 117 1.0 3.0 0.00 0.00 0.00 90 1014.9